     2              OBSERVATION DATA    GPS                 RINEX VERSION / TYPE
teqc 2000Feb29 20021016 17:29:32UTC                         PGM / RUN BY / DATE
                                                            COMMENT
L2: 1 -> 1; 5 -> 5; 60 -> 9                                 COMMENT
L2: 1 -> 1; 5 -> 5; 60 -> 9                                 COMMENT
L2: 1 -> 1; 5 -> 5; 60 -> 9                                 COMMENT
L2: 1 -> 1; 5 -> 5; 60 -> 9                                 COMMENT
L2: 1 -> 1; 5 -> 5; 60 -> 9                                 COMMENT
Original Marker Name: COY1                                  COMMENT
Campaign Name: Yolo County Subsidence 2002                  COMMENT
4-Character Station Name: COY1                              COMMENT
6-Character Antenna Code: TRMCMP                            COMMENT
Vertical Measurement Point: BPA                             COMMENT
Vertical Offset to Rinex Ref. Point: 0.0000                 COMMENT
Radial Measurement Point: RRP                               COMMENT
Radial Offset to Rinex Ref. Point: 0.0000                   COMMENT
Antenna Height from Field Measurement: 2.0000 m             COMMENT
Additional Antenna Identification Info.:                    COMMENT
Model 22020.00+GP                                           COMMENT
Original XYZ: -2622445.0186 -4247394.1107 3956930.4231      COMMENT
New XYZ position is based on association with SCEC monument COMMENT
E1F8X7U7+0011. Position of that monument is believed to be  COMMENT
valid to within 1 m horizontally; vertical accuracy         COMMENT
should be no worse than 3-times this value.                 COMMENT
                                                            COMMENT
Revised Rinex header created by UCSD GPS archive for        COMMENT
GSAC on 27-Jun-2003 (2003:178) 16:24:24 GMT                 COMMENT
For assistance contact dagnew@ucsd.edu                      COMMENT
or anderson@python.ucsd.edu                                 COMMENT
                                                            COMMENT
COY DUMP                                                    MARKER NAME
COY1                                                        MARKER NUMBER
-Unknown- YOLO_COUNTY                                       OBSERVER / AGENCY
14631 TRIMBLE 4000 SSI NP 7.19; SP 3.04                     REC # / TYPE / VERS
50490 TR GEOD L1/L2 GP                                      ANT # / TYPE
 -2622442.8923 -4247391.9485  3956926.9589                  APPROX POSITION XYZ
        2.0000        0.0000        0.0000                  ANTENNA: DELTA H/E/N
     1     1     0                                          WAVELENGTH FACT L1/2
     7    C1    L1    L2    P1    P2    S1    S2            # / TYPES OF OBSERV
     0                                                      INTERVAL
  2002     7    16    15     1   45.000000                  TIME OF FIRST OBS
  2002     7    16    15    45   15.000000                  TIME OF LAST OBS
                                                            END OF HEADER
 02  7 16 15  1 45.0000000  0 10G30G 6G10G15G17G18G22G23G26G29
  23844085.3674      45406.22056
        12.5004
  20596056.5554      34672.48058     27016.97957                  20596059.8244
        32.0004         28.0004
  23428002.1414      75158.06156     58564.22156                  23428007.1214
        18.7504         16.0004
  21760577.7734       4491.89857      3260.09256                  21760582.3674
        27.0004         24.7504
  21304852.4304      13785.68057     10742.67857                  21304856.5314
        27.7504         27.7504
  22753517.3204     -14400.97557     -8787.29456                  22753521.6334
        20.0004         17.7504
  23683680.3834       8516.97456
        12.7504
  21139942.0704      40309.31358      6751.50557                  21139945.7624
        33.5004         30.2504
  23102333.6414       -377.60756      -177.96756                  23102339.3484
        14.2504         13.0004
  23408593.3444      10501.25256      8182.38656                  23408597.5164
        16.0004         13.7504
 02  7 16 15  2  0.0000000  0 10G30G 6G10G15G17G18G22G23G26G29
  23860339.6174     130828.43346
        12.2504
  20603204.9384      72237.91648     56288.73247                  20603208.2304
        32.2504         28.0004
  23443390.8204     156028.65046    121580.22846                  23443396.0594
        18.0004         15.5004
  21761566.2894       9686.81747      7308.09646                  21761570.9184
        26.7504         24.7504
  21307734.4774      28930.37148     22543.73347                  21307738.6954
        28.0004         27.7504
  22750658.7194     -29425.99247    -20495.06746                  22750662.6454
        21.0004         18.7504
  23685502.3834      18092.06946      4518.59055                  23685507.2344
        12.7504         11.7504
  21148241.2584      83922.21748     40735.58847                  21148244.9734
        33.7504         30.5004
  23102339.3754       -352.13246      -158.10046                  23102344.6254
        14.0004         13.2504
  23410816.1414      22180.41546     17283.03546                  23410820.7234
        16.0004         14.5004
 02  7 16 15  2 15.0010000  0 10G30G 6G10G15G17G18G22G23G26G29
  23876658.6384     216581.56146
        12.5004
  20610432.7394     110219.63548     85884.85747                  20610436.0914
        32.0004         27.7504
  23458849.6854     237265.62546    184881.72446                  23458855.3924
        18.0004         15.5004
  21762623.5994      15243.53447     11638.00746                  21762628.3804
        26.7504         24.7504
  21310684.4584      44434.20247     34624.64147                  21310688.7004
        27.7504         27.7504
  22747870.4504     -44077.04247    -31911.44346                  22747874.3174
        20.2504         18.0004
  23687407.1774      28101.61146     12318.25246                  23687412.1574
        12.5004         12.0004
  21156622.2394     127963.44548     75053.42047                  21156626.0954
        34.0004         30.5004
  23102421.5914         82.18246       180.33146                  23102426.9814
        13.7504         12.7504
  23413116.7244      34272.61046     26705.54246                  23413120.9894
        15.7504         14.5004
 02  7 16 15  2 30.0010000  0 10G30G 6G10G15G17G18G22G23G26G29
  23893031.2004     302622.61946
        12.7504
  20617732.8884     148581.47448    115777.18847                  20617736.1574
        32.2504         28.0004
  23474369.8174     318826.43246    248435.56846                  23474375.2784
        17.0004         15.5004
  21763744.0444      21130.14647     16224.98846                  21763748.8604
        27.2504         24.7504
  21313697.0674      60263.90647     46959.47547                  21313701.2864
        27.7504         27.5004
  22745147.9744     -58383.16047    -43059.05746                  22745151.4664
        21.2504         18.5004
  23689388.2554      38513.43546     20431.35745                  23689394.2904
        12.5004         11.5004
  21165077.2634     172395.71348    109675.96047                  21165080.9424
        33.7504         30.7504
  23102575.5604        894.42346       813.29346                  23102581.5364
        13.7504         13.0004
  23415490.7784      46745.29646     36424.53146                  23415495.1264
        16.2504         14.7504
 02  7 16 15  2 45.0010000  0 10G30G 6G10G15G17G18G22G23G26G29
  23909455.3024     388930.81746     22434.91856                  23909460.3534
        12.5004         12.2504
  20625100.5364     187299.82048    145947.31447                  20625103.9584
        32.0004         28.0004
  23489947.5754     400690.00646    312225.32746                  23489952.8844
        16.2504         15.5004
  21764921.6614      27320.82947     21048.89946                  21764926.4894
        26.5004         24.5004
  21316766.2634      76394.44247     59528.72447                  21316770.3644
        27.5004         27.5004
  22742485.9664     -72371.33447    -53958.90946                  22742489.9624
        21.0004         18.5004
  23691441.0994      49302.04646     28838.04846                  23691446.7354
        12.2504         12.0004
  21173602.5364     217195.55448    144584.91947                  21173606.2164
        34.0004         31.0004
  23102798.0054       2058.86346      1720.67746                  23102804.4624
        14.2504         13.2504
  23417931.8804      59573.35846     46420.42646                  23417936.2164
        16.5004         14.7504
 02  7 16 15  3  0.0010000  0 10G30G 6G10G15G17G18G22G23G26G29
  23925925.8964     475481.39246     89876.86046                  23925931.2984
        13.0004         12.5004
  20632531.6694     226350.38048    176376.31147                  20632534.8924
        32.0004         28.0004
  23505578.9504     482831.71146    376231.79646                  23505584.5994
        16.2504         14.7504
  21766152.9664      33791.27147     26090.81346                  21766157.5484
        26.7504         24.7504
  21319888.1144      92801.29647     72313.28547                  21319892.4504
        27.2504         27.5004
  22739880.8644     -86065.55347    -64629.70746                  22739884.4034
        22.2504         18.7504
  23693561.8414      60443.27646     37519.53645                  23693567.6304
        12.2504         11.7504
  21182192.9194     262338.49248    179761.22847                  21182196.4934
        34.0004         31.0004
  23103082.4974       3551.46246      2883.77046                  23103088.0054
        14.5004         13.5004
  23420435.3174      72732.73746     56674.49546                  23420439.8064
        15.7504         14.2504
 02  7 16 15  3 15.0010000  0 10G30G 6G10G15G17G18G22G23G26G29
  23942438.9034     562256.61946    157493.84946                  23942444.7984
        13.2504         12.5004
  20640022.7944     265715.88348    207050.71247                  20640026.2164
        32.0004         28.0004
  23521260.0524     565233.74846    440441.12846                  23521265.6534
        17.0004         15.2504
  21767434.5284      40524.03947     31337.13546                  21767439.0054
        27.2504         25.0004
  21323059.9664     109467.19747     85299.70447                  21323064.1854
        27.2504         27.5004
  22737326.7164     -99482.94347    -75084.80646                  22737330.4544
        21.0004         18.7504
  23695745.6224      71919.91146     46462.35745                  23695750.1104
        12.0004         11.7504
  21190845.6144     307807.01348    215191.23747                  21190849.1184
        34.0004         31.2504
  23103425.1304       5355.41446      4289.45546                  23103430.1344
        14.0004         13.2504
  23422999.1534      86206.32346     67173.39846                  23423004.4274
        15.7504         14.2504
 02  7 16 15  3 30.0010000  0 10G30G 6G10G15G17G18G22G23G26G29
  23958991.6304     649241.78646    225274.44146                  23958997.4894
        13.2504         12.5004
  20647571.0994     305382.08748    237959.42147                  20647574.3924
        32.0004         28.0004
  23536986.7784     647881.51546    504841.94546                  23536991.9464
        16.0004         14.7504
  21768762.8254      47504.82047     36776.70346                  21768767.2084
        27.0004         25.0004
  21326277.8254     126377.69647     98476.71147                  21326282.1734
        27.0004         27.2504
  22734823.9974    -112637.72847    -85335.26046                  22734827.7244
        22.2504         18.7504
  23697990.2634      83717.90745     55655.59145                  23697995.6654
        11.2504         11.5004
  21199556.9974     353586.59648    250863.63547                  21199560.4314
        34.0004         31.2504
  23103825.0994       7456.70246      5926.85046                  23103830.5834
        14.2504         13.5004
  23425621.5754      99980.05346     77906.20246                  23425626.4504
        16.7504         14.5004
 02  7 16 15  3 45.0010000  0 10G30G 6G10G15G17G18G22G23G26G29
  23975579.9034     736418.79646    293204.51946                  23975584.5324
        12.5004         12.0004
  20655172.9814     345331.33048    269088.68947                  20655176.2864
        32.0004         28.2504
  23552757.5054     730756.90946    569420.12546                  23552763.0244
        16.0004         14.7504
  21770135.0364      54715.89947     42395.73446                  21770139.6304
        26.7504         25.0004
  21329538.6694     143515.07647    111830.51947                  21329543.1694
        26.5004         27.2504
  22732366.9034    -125547.28747    -95394.64346                  22732370.6654
        21.5004         19.0004
  23700293.7004      95819.51145     65085.42245                  23700299.5484
        11.5004         11.0004
  21208324.5524     399659.19848    286764.35747                  21208327.9854
        34.0004         31.2504
  23104277.8964       9837.84946      7782.30846                  23104283.3924
        13.5004         13.7504
  23428296.0444     114036.35346     88859.16946                  23428300.1104
        17.0004         14.7504
 02  7 16 15  4  0.0010000  0 10G30G 6G10G15G17G18G22G23G26G29
  23992203.8564     823778.63345    361277.05746                  23992209.3534
        11.7504         12.0004
  20662827.2394     385555.00648    300431.79547                  20662830.5914
        31.7504         28.0004
  23568569.9894     813850.92146    634168.65246                  23568575.5444
        16.7504         14.7504
  21771549.2554      62148.59447     48187.45346                  21771553.9314
        26.7504         25.0004
  21332841.4814     160870.57247    125354.28147                  21332845.9354
        26.7504         27.2504
  22729955.7084    -138220.04047   -105269.49046                  22729959.4464
        22.2504         19.2504
  23702652.3724     108216.19345     74745.15245                  23702658.4664
        11.5004         11.5004
  21217145.6694     446015.94448    322886.49447                  21217149.0794
        34.0004         31.5004
  23104783.4354      12490.62046      9849.42646                  23104788.5324
        14.5004         13.5004
  23431022.1224     128366.86146    100025.79946                  23431026.6924
        15.7504         14.5004
 02  7 16 15  4 15.0010000  0 10G30G 6G10G15G17G18G22G23G26G29
  24008861.5754     911310.26446    429483.44646                  24008867.2244
        13.0004         12.5004
  20670532.0674     426042.61048    331980.55847                  20670535.2904
        32.2504         28.2504
  23584421.7314     897152.62946    699079.05146                  23584427.2284
        16.7504         15.0004
  21773003.6144      69792.28647     54143.57646                  21773008.3844
        26.5004         25.0004
  21336183.4424     178433.56547    139039.72947                  21336187.9664
        26.7504         27.5004
  22727586.9354    -150666.41847   -114967.95146                  22727590.9664
        21.5004         19.2504
  23705065.7244     120897.61045     84626.76845                  23705071.7004
        11.5004         11.5004
  21226019.1534     492646.09548    359221.67047                  21226022.6924
        34.0004         31.2504
  23105337.5284      15404.77946     12120.22646                  23105342.6494
        14.2504         13.2504
  23433798.9114     142961.16646    111397.99646                  23433804.3024
        15.0004         14.0004
 02  7 16 15  4 30.0010000  0 10G30G 6G10G15G17G18G22G23G26G29
  24025549.7634     999008.29946    497819.52146                  24025555.8454
        13.0004         12.2504
  20678285.6534     466789.22348    363731.14647                  20678289.1344
        31.5004         28.2504
  23600312.4814     980656.53746    764146.98546                  23600318.3174
        16.7504         14.5004
  21774497.5674      77642.01347     60260.25246                  21774502.4074
        26.5004         24.7504
  21339564.1694     196199.03147    152882.94747                  21339568.4814
        26.5004         27.2504
  22725260.6614    -162891.21347   -124493.74846                  22725264.3534
        22.2504         19.5004
  23707532.1614     133858.75445     94726.37645                  23707538.7004
        11.2504         11.2504
  21234943.4814     539544.40748    395765.80547                  21234946.9854
        34.0004         31.0004
  23105941.9354      18575.66146     14591.05146                  23105946.4114
        15.0004         13.2504
  23436626.5284     157814.50346    122972.04746                  23436631.1104
        16.2504         14.2504
 02  7 16 15  4 45.0010000  0 10G30G 6G10G15G17G18G22G23G26G29
  24042269.0444    1086865.62046    566279.72645                  24042274.7044
        12.0004         11.2504
  20686087.4274     507788.18648    395678.37447                  20686091.0364
        31.7504         28.0004
  23616239.3644    1064355.57646    829366.96846                  23616244.8494
        16.2504         15.0004
  21776029.2394      85690.97047     66532.17346                  21776033.8214
        27.0004         25.0004
  21342982.0674     214160.18147    166878.64647                  21342986.6264
        26.5004         27.2504
  22722974.8724    -174900.98047   -133851.99546                  22722978.9854
        21.5004         19.2504
  23710050.2394     147093.05945    105038.80346                  23710057.2394
        11.0004         12.0004
  21243917.5214     586703.88148    432513.44047                  21243921.2244
        34.0004         30.7504
  23106592.2634      21996.88546     17256.96046                  23106597.5244
        14.7504         14.0004
  23439501.7084     172920.36046    134742.85446                  23439505.9034
        17.0004         15.2504
 02  7 16 15  5  0.0010000  0 10G30G 6G10G15G17G18G22G23G26G29
  24059015.0054    1174874.92245    634858.33645                  24059021.8764
        11.2504         11.5004
  20693935.9744     549032.52948    427816.80547                  20693939.4894
        31.7504         28.2504
  23632202.7084    1148242.47746    894733.32746                  23632208.4744
        16.0004         14.5004
  21777597.9354      93932.22747     72953.94446                  21777602.6574
        27.2504         24.7504
  21346435.9274     232309.94847    181021.32847                  21346440.4744
        26.5004         27.2504
  22720729.6464    -186702.48347   -143047.94646                  22720733.6184
        22.5004         19.2504
  23712618.3104     160593.66145    115558.76945                  23712625.3104
        11.0004         11.5004
  21252940.0134     634117.39248    469459.02647                  21252943.6104
        33.7504         30.7504
  23107290.0524      25661.84946     20112.81046                  23107295.4314
        14.7504         14.2504
  23442421.8804     188272.03346    146705.20346                  23442425.8294
        16.0004         14.5004
 02  7 16 15  5 15.0010000  0 10G30G 6G10G15G17G18G22G23G26G29
  24075790.6924    1263026.72245    703548.00245                  24075796.6814
        11.5004         11.2504
  20701829.3884     590513.28748    460139.45747                  20701833.1854
        31.5004         28.2504
  23648199.2634    1232307.83446    960238.76146                  23648205.6264
        15.7504         15.0004
  21779200.5134     102356.71447     79518.48346                  21779205.1424
        27.0004         24.7504
  21349924.0134     250639.23747    195303.88947                  21349928.2784
        26.7504         27.2504
  22718521.4894    -198304.48847   -152088.46646                  22718525.0524
        22.2504         19.0004
  23715237.0214     174351.70245    126279.31045                  23715243.5604
        11.2504         11.5004
  21262008.9274     681775.71148    506595.37347                  21262012.8064
        33.5004         30.7504
  23108031.8414      29561.82746     23151.76646                  23108037.2904
        14.7504         13.7504
  23445387.6144     203860.55246    158852.11846                  23445392.2204
        15.0004         14.2504
 02  7 16 15  5 30.0010000  0 10G30G 6G10G15G17G18G22G23G26G29
  24092590.9744    1351312.93745    772342.40045                  24092595.9424
        11.7504         11.5004
  20709766.6384     632222.88448    492640.43247                  20709770.3414
        31.5004         28.0004
  23664227.8494    1316543.62146   1025876.99846                  23664233.4974
        14.2504         14.2504
  21780837.3804     110956.77947     86219.83946                  21780841.8214
        27.7504         25.0004
  21353444.6224     269140.44847    209720.41547                  21353448.8994
        27.0004         27.5004
  22716350.4894    -209714.45747   -160979.32446                  22716354.0524
        22.7504         19.5004
  23717902.2084     188359.60845    137194.56145                  23717908.8064
        11.0004         11.5004
  21271123.3724     729671.03648    543916.39847                  21271127.1224
        33.7504         30.2504
  23108817.2864      33689.59546     26368.21846                  23108821.8564
        15.0004         13.7504
  23448398.6854     219678.63646    171177.91146                  23448403.4314
        16.5004         14.7504
 02  7 16 15  5 45.0010000  0 10G30G 6G10G15G17G18G22G23G26G29
  24109416.8494    1439732.74645    841240.86745                  24109423.0364
        11.2504         11.5004
  20717747.1614     674160.77848    525319.29647                  20717750.7594
        31.5004         28.5004
  23680291.0524    1400948.96246   1091647.33746                  23680297.4624
        15.2504         14.5004
  21782506.9034     119731.85447     93057.56746                  21782511.4384
        27.0004         25.0004
  21356997.9894     287812.95247    224270.41947                  21357002.4194
        27.0004         27.5004
  22714215.9424    -220932.60047   -169720.72146                  22714219.1654
        22.7504         19.7504
  23720615.0524     202616.96445    148304.16846                  23720621.7674
        11.0004         12.0004
  21280282.3254     777802.53748    581421.46147                  21280286.0754
        33.7504         30.5004
  23109645.6854      38044.87046     29761.95646                  23109650.4784
        14.7504         14.0004
  23451453.4744     235725.95346    183682.32346                  23451457.3884
        17.7504         15.2504
 02  7 16 15  6  0.0010000  0 10G30G 6G10G15G17G18G22G23G26G29
  24126266.2084    1528279.22245    910238.07245                  24126273.7004
        10.7504         11.0004
  20725770.0444     716320.58848    558171.08947                  20725773.6304
        31.7504         28.5004
  23696384.7314    1485516.93946   1157544.41546                  23696390.9784
        16.2504         14.2504
  21784208.9114     128675.48147    100026.63746                  21784213.4814
        26.7504         24.7504
  21360582.3024     306650.31047    238948.87747                  21360586.8254
        26.5004         27.5004
  22712116.4194    -231965.28847   -178317.59946                  22712120.2744
        22.7504         19.7504
  23723375.3334     217117.43845    159603.24945                  23723380.6774
        11.5004         11.7504
  21289485.1224     826163.55848    619105.36847                  21289488.8134
        33.7504         30.5004
  23110516.5054      42621.62746     33328.28146                  23110521.2164
        15.7504         14.2504
  23454547.9584     251996.17046    196360.41746                  23454552.1424
        15.5004         14.7504
 02  7 16 15  6 15.0010000  0 10G30G 6G10G15G17G18G22G23G26G29
  24143139.9114    1616951.70845    979333.44445                  24143146.8884
        10.2504         11.0004
  20733835.1304     758701.95848    591195.51947                  20733838.6224
        32.0004         28.5004
  23712508.1384    1570246.85046   1223567.67946                  23712513.7634
        15.7504         14.0004
  21785942.9354     137787.26447    107126.73946                  21785947.6224
        27.0004         24.7504
  21364198.2634     325652.05547    253755.43047                  21364202.9744
        26.7504         27.5004
  22710052.1224    -242812.65747   -186770.07446                  22710055.7674
        23.0004         20.0004
  23726180.8724     231860.74146    171091.53446                  23726187.4354
        12.0004         12.0004
  21298731.4354     874753.47748    656967.63647                  21298734.9624
        33.5004         30.2504
  23111430.2314      47419.73946     37067.08346                  23111435.1064
        16.2504         14.5004
  23457686.5754     268489.28246    209212.21046                  23457691.9664
        15.0004         14.0004
 02  7 16 15  6 30.0010000  0 10G30G 6G10G15G17G18G22G23G26G29
  24160037.6224    1705745.91745   1048523.68045                  24160044.1854
        10.2504         10.5004
  20741941.2634     801301.14548    624389.67747                  20741944.8254
        31.7504         28.5004
  23728661.0214    1655134.43546   1289713.80446                  23728666.1184
        15.0004         13.7504
  21787707.7164     147063.28447    114354.81146                  21787712.3104
        26.5004         24.7504
  21367844.7474     344814.21447    268686.98247                  21367849.3884
        26.7504         27.7504
  22708022.6774    -253478.27547   -195080.92946                  22708026.4624
        23.0004         20.0004
  23729031.7864     246843.22946    182766.19246                  23729037.7164
        12.2504         12.2504
  21308020.5754     923568.24048    695005.10747                  21308024.2904
        33.5004         30.2504
  23112384.5914      52435.82746     40975.76246                  23112389.5954
        15.7504         14.0004
  23460866.7864     285201.53146    222234.76646                  23460871.5444
        15.2504         14.0004
 02  7 16 15  6 45.0010000  0 10G30G 6G10G15G17G18G22G23G26G29
  24176956.7474    1794652.71545   1117801.61945                  24176964.1574
        10.7504         10.0004
  20750087.7164     844109.40748    657746.75147                  20750091.3134
        32.5004         28.5004
  23744843.1464    1740170.56846   1355975.67146                  23744849.0054
        15.2504         13.7504
  21789502.6144     156494.73247    121703.99946                  21789507.4664
        26.7504         24.7504
  21371520.3104     364127.98547    283736.67347                  21371524.9624
        26.7504         27.7504
  22706025.7004    -263970.66847   -203256.80346                  22706029.3804
        22.2504         19.7504
  23731926.8964     262056.17346    194620.42046                  23731932.9424
        12.2504         12.0004
  21317350.8724     972598.83648    733210.76247                  21317354.4814
        33.5004         30.2504
  23113379.4034      57661.37846     45047.63146                  23113384.3024
        16.0004         14.2504
  23464088.0444     302124.50046    235421.48646                  23464091.4894
        16.7504         14.5004
 02  7 16 15  7  0.0010000  0 10G30G 6G10G15G17G18G22G23G26G29
  24193895.8724    1883674.12445   1187168.91445                  24193902.4814
        10.0004         10.2504
  20758273.9034     887129.22848    691268.67547                  20758277.3374
        32.0004         28.7504
  23761053.7864    1825357.44946   1422355.01946                  23761059.1774
        15.2504         13.7504
  21791327.3174     166084.11447    129176.25346                  21791332.1924
        26.7504         24.7504
  21375224.6924     383595.92847    298906.50147                  21375229.0634
        27.0004         27.7504
  22704062.9744    -274287.30747   -211295.71946                  22704066.6064
        23.0004         20.0004
  23734866.8964     277502.13446    206656.22946                  23734872.7784
        13.2504         12.5004
  21326722.4114    1021847.57548    771586.40047                  21326726.1964
        33.2504         30.0004
  23114413.6464      63099.27946     49284.97746                  23114418.1694
        16.0004         14.5004
  23467348.4664     319260.77646    248774.42546                  23467353.0014
        15.7504         14.7504
 02  7 16 15  7 15.0010000  0 10G30G 6G10G15G17G18G22G23G26G29
  24210856.3804    1972804.90745   1256621.37545                  24210863.0834
        10.0004         10.7504
  20766499.6304     930355.75648    724951.67747                  20766503.1104
        32.0004         28.7504
  23777291.5444    1910689.76246   1488847.69046                  23777297.1464
        14.0004         13.5004
  21793181.4424     175826.43347    136767.67546                  21793186.0954
        27.0004         24.7504
  21378957.9194     403212.97647    314192.51347                  21378962.2434
        27.2504         27.7504
  22702131.8334    -284432.87747   -219201.33646                  22702135.8644
        22.2504         20.2504
  23737849.0284     293176.35946    218869.92646                  23737855.2394
        12.7504         12.2504
  21336134.7314    1071309.27948    810127.98247                  21336138.4934
        33.5004         30.0004
  23115488.8964      68744.98146     53684.22446                  23115493.2554
        16.7504         14.5004
  23470647.5284     336605.70046    262289.98646                  23470653.5284
        14.0004         14.0004
 02  7 16 15  7 30.0010000  0 10G30G 6G10G15G17G18G22G23G26G29
  24227837.3334    2062039.51645   1326154.76545                  24227844.7784
        10.0004         10.0004
  20774764.0134     973783.98448    758791.84447                  20774767.4464
        32.5004         28.5004
  23793556.7244    1996162.00346   1555449.38846                  23793562.9234
        14.2504         13.2504
  21795063.6464     185716.59447    144474.30746                  21795068.3804
        26.7504         24.7504
  21382718.4114     422974.04547    329590.75447                  21382722.7124
        27.2504         27.7504
  22700233.0054    -294412.31447   -226977.50246                  22700236.8374
        22.7504         20.2504
  23740874.8564     309073.89846    231257.60246                  23740880.0954
        13.5004         12.5004
  21345586.3724    1120978.67948    848831.40347                  21345590.2044
        33.2504         30.0004
  23116600.7004      74593.69146     58241.68146                  23116605.8804
        16.0004         14.5004
  23473987.3964     354154.31746    275964.23846                  23473992.7284
        14.7504         14.0004
 02  7 16 15  7 45.0010000  0 10G30G 6G10G15G17G18G22G23G26G29
  24244838.2244    2151376.76445   1395768.16045                  24244844.6924
        10.2504          9.7504
  20783066.0604    1017412.95348    792788.43347                  20783069.5404
        31.7504         28.5004
  23809848.5054    2081772.87346   1622159.10346                  23809853.6264
        15.2504         13.2504
  21796973.4114     195753.69347    152295.43146                  21796978.1574
        27.0004         24.5004
  21386505.9034     442878.10947    345100.40747                  21386510.4154
        27.2504         28.0004
  22698365.0914    -304226.33447   -234624.78046                  22698369.0054
        23.0004         20.5004
  23743942.5674     325193.82046    243818.58346                  23743948.0994
        13.5004         12.2504
  21355077.6064    1170854.59648    887695.75047                  21355081.3214
        33.5004         30.2504
  23117751.8644      80644.78246     62956.84446                  23117757.5364
        15.0004         14.0004
  23477366.7244     371906.03946    289796.76346                  23477370.9664
        16.0004         14.2504
 02  7 16 15  8  0.0010000  0 10G30G 6G10G15G17G18G22G23G26G29
  24261858.5524    2240817.60145   1465462.25945                  24261865.3494
        10.2504         10.0004
  20791406.9034    1061244.13648    826942.58747                  20791410.3964
        32.0004         28.5004
  23826165.4354    2167523.53946   1688977.77546                  23826170.7434
        13.5004         13.0004
  21798911.5834     205939.14747    160232.15846                  21798916.4464
        26.5004         24.7504
  21390320.7864     462926.52547    360722.54947                  21390325.4034
        27.0004         28.0004
  22696529.6534    -313873.13547   -242141.74046                  22696533.8494
        23.2504         20.5004
  23747051.8334     341537.70946    256554.06546                  23747057.3064
        12.5004         12.0004
  21364608.3174    1220938.22348    926721.94847                  21364612.0674
        33.5004         30.0004
  23118943.3724      86900.04246     67831.10146                  23118948.4464
        16.7504         14.5004
  23480783.4744     389862.39146    303788.72346                  23480787.5634
        15.7504         14.2504
 02  7 16 15  8 15.0010000  0 10G30G 6G10G15G17G18G22G23G26G29
  24278898.0054    2330356.75245   1535232.93745                  24278904.1694
        11.2504         10.7504
  20799785.1384    1105272.73348    861250.57447                  20799788.8884
        31.7504         28.5004
  23842508.9354    2253408.78146   1755901.29446                  23842514.4664
        14.0004         12.7504
  21800876.7314     216268.03047    168280.64946                  21800881.3844
        26.2504         24.7504
  21394162.1464     483114.47247    376453.41447                  21394166.9744
        26.5004         27.7504
  22694725.3414    -323357.40247   -249532.05746                  22694729.1034
        24.2504         20.7504
  23750203.2474     358100.79646    269460.36846                  23750208.9424
        12.2504         12.0004
  21374177.3804    1271224.41348    965905.98747                  21374181.0484
        33.2504         30.0004
  23120172.0444      93354.99246     72860.93146                  23120176.4854
        17.5004         14.7504
  23484237.7864     408018.79446    317936.58946                  23484242.9074
        15.0004         14.2504
 02  7 16 15  8 30.0010000  0 10G30G 6G10G15G17G18G22G23G26G29
  24295955.2004    2419993.34346   1605079.57545                  24295962.4584
        12.0004         11.5004
  20808200.8564    1149498.22948    895711.98947                  20808204.5014
        31.2504         28.5004
  23858878.1854    2339427.52946   1822928.82346                  23858883.6224
        14.0004         13.2504
  21802869.8334     226739.86147    176440.52646                  21802874.6854
        26.5004         24.7504
  21398030.4894     503441.28247    392292.48547                  21398035.1304
        27.0004         28.0004
  22692951.1464    -332679.55547   -256796.05546                  22692954.9544
        23.7504         20.7504
  23753397.6774     374882.72246    282537.19046                  23753403.7124
        12.7504         12.0004
  21383784.8564    1321712.47548   1005247.32747                  21383788.4074
        33.5004         30.2504
  23121437.2314     100009.41246     78046.20946                  23121442.3294
        16.0004         14.5004
  23487730.8254     426374.82846    332240.00946                  23487737.3414
        14.7504         14.5004
 02  7 16 15  8 45.0010000  0 10G30G 6G10G15G17G18G22G23G26G29
  24313029.9584    2509724.37545   1674999.80745                  24313036.3104
        11.2504         11.0004
  20816653.6534    1193918.07848    930324.84747                  20816657.4504
        31.5004         28.2504
  23875272.2474    2425576.86046   1890058.12246                  23875278.0604
        14.7504         13.0004
  21804889.1224     237352.02247    184709.75046                  21804894.0094
        26.2504         24.7504
  21401924.5604     523904.30547    408237.69747                  21401929.0484
        27.7504         28.0004
  22691207.7244    -341841.89047   -263935.52046                  22691211.6734
        23.7504         21.0004
  23756632.1774     391880.92246    295782.52646                  23756637.8254
        12.5004         12.0004
  21393430.6224    1372399.60848   1044743.78947                  21393434.1034
        33.5004         30.0004
  23122740.5524     106860.93546     83385.08046                  23122746.8804
        15.2504         14.2504
  23491261.8414     444928.24146    346697.24346                  23491267.8764
        15.7504         14.2504
 02  7 16 15  9  0.0010000  0 10G30G 6G10G15G17G18G22G23G26G29
  24330123.2164    2599549.98545   1744993.72645                  24330130.1574
        11.2504         11.0004
  20825143.7864    1238532.86048    965089.59547                  20825147.6534
        31.5004         28.5004
  23891690.5524    2511856.94646   1957289.31546                  23891695.8374
        14.5004         13.0004
  21806935.1924     248104.97447    193088.68446                  21806940.1264
        26.2504         24.7504
  21405844.4424     544504.08647    424289.47147                  21405848.8844
        27.2504         28.0004
  22689494.3964    -350843.65247   -270949.86646                  22689498.3104
        24.0004         20.7504
  23759907.0604     409096.03946    309196.92546                  23759913.5874
        12.0004         12.0004
  21403113.6464    1423286.01848   1084395.52847                  21403117.2784
        33.0004         29.7504
  23124082.8334     113910.52546     88878.29646                  23124088.5054
        16.5004         14.7504
  23494830.3414     463679.70446    361308.74646                  23494835.1224
        16.2504         14.7504
 02  7 16 15  9 15.0010000  0 10G30G 6G10G15G17G18G22G23G26G29
  24347233.8644    2689466.88245   1815058.76445                  24347240.3334
        11.2504         11.2504
  20833670.0054    1283339.70148   1000004.00447                  20833673.8134
        30.7504         28.5004
  23908133.2784    2598264.67146   2024619.96346                  23908138.8804
        14.2504         13.0004
  21809007.8334     258995.82847    201575.07346                  21809012.7434
        26.7504         24.7504
  21409790.0524     565237.65147    440445.49347                  21409794.3884
        27.2504         28.0004
  22687811.6304    -359687.62247   -277841.25146                  22687815.7204
        24.0004         21.0004
  23763224.0604     426525.28845    322778.17146                  23763231.3884
        11.7504         12.0004
  21412834.2394    1474368.63948   1124200.16447                  21412837.9544
        33.0004         29.7504
  23125462.0994     121155.66346     94523.87446                  23125466.8924
        17.5004         14.7504
  23498434.8964     482626.37846    376072.40146                  23498439.9584
        15.2504         14.5004
 02  7 16 15  9 30.0010000  0 10G30G 6G10G15G17G18G22G23G26G29
  24364361.6924    2779474.94845   1885194.84946                  24364368.7044
        11.7504         12.0004
  20842233.2784    1328338.85948   1035068.27047                  20842237.1814
        31.5004         28.5004
  23924600.4504    2684799.78546   2092049.86446                  23924606.3564
        14.5004         13.0004
  21811106.6694     270024.70247    210169.01346                  21811111.4744
        27.0004         24.7504
  21413761.0914     586105.15147    456705.88247                  21413765.6034
        27.5004         28.0004
  22686158.4894    -368373.29347   -284609.28846                  22686162.0874
        23.7504         20.7504
  23766581.5914     444168.86445    336526.38745                  23766587.7314
        11.7504         11.7504
  21422592.3964    1525647.46248   1164157.68247                  21422596.0874
        32.5004         29.5004
  23126877.5134     128596.85446    100322.20446                  23126882.1064
        16.7504         15.2504
  23502078.0444     501768.86146    390988.64646                  23502083.0364
        15.5004         14.0004
 02  7 16 15  9 45.0010000  0 10G30G 6G10G15G17G18G22G23G26G29
  24381506.9274    2869572.30345   1955400.53445                  24381514.6534
        11.5004         11.5004
  20850832.8254    1373529.02248   1070281.37147                  20850836.6104
        31.7504         28.5004
  23941091.7554    2771460.52246   2159577.67646                  23941096.9934
        15.0004         13.5004
  21813231.4034     281190.25747    218869.45646                  21813236.0214
        27.0004         25.2504
  21417756.9894     607105.19947    473069.55947                  21417761.4424
        27.0004         27.7504
  22684535.4584    -376901.84247   -291254.90646                  22684539.3494
        23.7504         21.0004
  23769979.8024     462025.68046    350440.80345                  23769985.8964
        12.2504         11.7504
  21432387.1854    1577120.87448   1204266.82447                  21432391.0174
        32.0004         29.5004
  23128330.7004     136233.06846    106272.52346                  23128336.0444
        17.2504         15.2504
  23505757.5364     521105.99546    406056.54846                  23505762.4114
        15.5004         14.7504
 02  7 16 15 10  0.0010000  0 10G30G 6G10G15G17G18G22G23G26G29
  24398668.9504    2959756.21145   2025673.62745                  24398675.9744
        11.7504         11.2504
  20859467.7944    1418907.62648   1105641.30647                  20859471.4974
        31.5004         28.7504
  23957605.5994    2858243.99346   2227201.10146                  23957611.5174
        14.2504         13.0004
  21815381.8494     292489.85547    227674.34546                  21815386.2084
        27.2504         25.2504
  21421777.9274     628235.11047    489534.41847                  21421782.3804
        27.2504         28.0004
  22682942.2634    -385275.90247   -297780.12446                  22682946.0364
        24.7504         21.2504
  23773417.4274     480093.21146    364519.40145                  23773423.0524
        12.2504         11.7504
  21442219.0444    1628786.01648   1244525.37147                  21442223.0634
        32.2504         29.2504
  23129820.8494     144062.03246    112373.03646                  23129824.7984
        17.5004         15.2504
  23509474.5444     540635.26146    421274.16546                  23509479.4894
        16.2504         15.2504
 02  7 16 15 10 15.0010000  0 10G30G 6G10G15G17G18G22G23G26G29
  24415845.6924    3050022.98845   2096011.31545                  24415851.9854
        11.0004         11.2504
  20868138.4274    1464471.59848   1141145.68947                  20868142.1184
        31.7504         28.7504
  23974142.3724    2945146.77346   2294917.51646                  23974148.8414
        13.2504         12.7504
  21817557.0754     303920.49847    236581.36046                  21817561.4704
        27.5004         25.2504
  21425822.8964     649491.88147    506098.13347                  21425827.4784
        27.0004         28.0004
  22681377.0994    -393498.07747   -304186.99746                  22681380.9074
        23.5004         21.2504
  23776896.4814     498368.39446    378759.81046                  23776902.3884
        13.0004         12.2504
  21452086.2634    1680639.67248   1284930.81147                  21452090.3884
        31.5004         29.2504
  23131346.8644     152081.08146    118621.66246                  23131351.5404
        17.7504         15.2504
  23513226.5674     560353.92946    436639.36646                  23513231.7004
        16.0004         15.0004
 02  7 16 15 10 30.0010000  0 10G30G 6G10G15G17G18G22G23G26G29
  24433038.1534    3140367.72545   2166409.76645                  24433044.7514
        11.0004         10.7504
  20876843.5214    1510216.37648   1176790.95647                  20876847.1774
        31.5004         28.7504
  23990701.8334    3032163.73446   2362722.87246                  23990708.0914
        13.7504         13.2504
  21819755.8254     315477.49147    245586.82346                  21819760.2084
        27.0004         25.0004
  21429891.4664     670870.78347    522757.01847                  21429896.1064
        27.7504         28.0004
  22679840.9584    -401572.81047   -310478.97946                  22679844.7314
        24.2504         21.5004
  23780412.4974     516846.77846    393158.56546                  23780417.9814
        13.0004         12.2504
  21461988.8024    1732676.92848   1325479.31547                  21461992.7514
        32.2504         29.2504
  23132908.0054     160285.76746    125014.94146                  23132912.4814
        17.2504         15.0004
  23517013.8644     580257.54946    452148.70946                  23517019.0564
        15.7504         14.7504
 02  7 16 15 10 45.0010000  0 10G30G 6G10G15G17G18G22G23G26G29
  24450245.3804    3230793.20945   2236871.12845                  24450252.2124
        11.2504         11.0004
  20885583.5994    1556145.12948   1212579.58147                  20885587.3134
        32.0004         28.7504
  24007282.8884    3119297.78846   2430619.50446                  24007288.9464
        14.0004         12.2504
  21821979.9744     327163.89147    254693.12446                  21821984.6034
        27.2504         25.2504
  21433983.4894     692374.82347    539513.41047                  21433987.9074
        27.2504         28.0004
  22678332.8644    -409496.85547   -316653.54446                  22678336.8724
        24.0004         21.2504
  23783967.6304     535531.49246    407718.09546                  23783972.4934
        12.7504         12.5004
  21471926.2864    1784900.63748   1366173.10747                  21471930.2004
        31.5004         29.2504
  23134504.3724     168679.68046    131555.66146                  23134508.6494
        16.5004         15.0004
  23520837.7164     600349.26246    467804.60246                  23520842.4384
        16.5004         15.0004
 02  7 16 15 11  0.0010000  0 10G30G 6G10G15G17G18G22G23G26G29
  24467468.1464    3321297.97045   2307394.23845                  24467474.6854
        11.0004         11.0004
  20894358.1144    1602256.85848   1248510.78947                  20894361.7244
        31.7504         28.7504
  24023885.7084    3206547.45646   2498606.21246                  24023892.0604
        13.2504         12.2504
  21824228.2244     338978.76647    263899.53546                  21824232.6304
        27.2504         25.2504
  21438099.2864     714002.96547    556366.51047                  21438103.7634
        27.7504         28.0004
  22676853.4664    -417271.08547   -322711.36646                  22676857.5094
        24.0004         21.2504
  23787562.8024     554421.55346    422437.63346                  23787567.8994
        13.7504         12.7504
  21481899.7394    1837309.56648   1407011.22747                  21481903.7474
        32.0004         29.2504
  23136138.1694     177262.06646    138243.25846                  23136142.9384
        16.7504         14.7504
  23524696.3494     620628.43146    483606.57546                  23524701.2474
        16.2504         14.7504
 02  7 16 15 11 15.0010000  0 10G30G 6G10G15G17G18G22G23G26G29
  24484705.6614    3411882.22945   2377979.28145                  24484711.3564
        11.0004         11.0004
  20903168.0604    1648552.14948   1284585.02347                  20903171.5174
        32.5004         28.7504
  24040510.4584    3293913.00446   2566683.20546                  24040517.1964
        13.2504         12.5004
  21826500.7634     350922.55347    273206.39246                  21826505.3334
        26.7504         25.0004
  21442238.2634     735755.78847    573316.76347                  21442242.9624
        26.7504         28.0004
  22675402.5054    -424894.67647   -328651.81646                  22675406.6654
        23.5004         21.2504
  23791197.1224     573517.74946    437317.78946                  23791201.7864
        14.2504         12.7504
  21491908.0364    1889904.12648   1447993.99547                  21491911.9034
        32.2504         29.2504
  23137806.8254     186033.84046    145078.42446                  23137811.4314
        16.5004         14.7504
  23528591.8644     641095.73846    499555.13446                  23528596.7284
        17.0004         15.2504
 02  7 16 15 11 30.0010000  0 10G30G 6G10G15G17G18G22G23G26G29
  24501959.0134    3502544.94445   2448625.50745                  24501965.8564
        10.7504         10.7504
  20912012.3024    1695030.44648   1320801.85947                  20912015.8644
        31.2504         28.7504
  24057158.4354    3381393.60446   2634849.84846                  24057164.8684
        14.2504         12.5004
  21828798.1224     362994.70847    282613.27746                  21828802.8804
        27.0004         25.0004
  21446401.5524     757632.61647    590363.63747                  21446406.2634
        26.7504         27.5004
  22673980.8494    -432368.00747   -334475.17346                  22673984.8104
        24.5004         21.2504
  23794869.5754     592819.60046    452358.19446                  23794874.5444
        14.0004         12.7504
  21501951.6534    1942683.45248   1489120.73847                  21501955.5674
        32.0004         29.5004
  23139512.2474     194994.81346    152061.01346                  23139516.7474
        17.0004         15.0004
  23532521.7554     661750.86046    515650.03646                  23532526.8174
        16.7504         15.2504
 02  7 16 15 11 45.0010000  0 10G30G 6G10G15G17G18G22G23G26G29
  24519225.5524    3593285.10245   2519332.05345                  24519232.2674
        10.5004         10.5004
  20920891.6614    1741691.10748   1357160.80547                  20920895.3884
        31.7504         28.7504
  24073826.1464    3468988.13046   2703105.28646                  24073832.1924
        13.7504         12.5004
  21831119.7784     375194.49947    292119.61846                  21831124.3964
        27.0004         25.2504
  21450587.8804     779632.69047    607506.55647                  21450592.5324
        26.7504         27.7504
  22672586.8104    -439691.53247   -340181.79646                  22672590.9464
        23.5004         21.2504
  23798581.1774     612326.37746    467558.30346                  23798585.9934
        14.0004         12.5004
  21512030.4194    1995646.61248   1530390.72347                  21512034.1224
        32.5004         29.5004
  23141253.3644     204144.42046    159190.59746                  23141258.6614
        16.2504         14.5004
  23536488.0994     682593.24246    531890.85246                  23536493.0214
        16.5004         15.2504
 02  7 16 15 12  0.0010000  0 10G30G 6G10G15G17G18G22G23G26G29
  24536507.4504    3684099.85145   2590096.74345                  24536514.1064
        10.2504         10.2504
  20929805.3104    1788531.75248   1393659.99247                  20929808.9544
        32.0004         28.7504
  24090516.7944    3556693.77646   2771447.31746                  24090523.0284
        14.5004         12.7504
  21833465.0364     387519.42947    301723.46446                  21833469.6424
        27.2504         25.5004
  21454797.2164     801753.58947    624743.61647                  21454801.8104
        26.7504         27.5004
  22671221.3254    -446867.44347   -345773.39946                  22671225.3214
        23.5004         21.5004
  23802331.6534     632035.75446    482916.24546                  23802336.3644
        14.0004         12.5004
  21522143.2164    2048790.92248   1571801.86747                  21522146.9894
        32.0004         29.5004
  23143030.7634     213480.71046    166465.64246                  23143035.4854
        16.7504         14.5004
  23540489.0134     703620.60246    548275.83446                  23540493.7824
        16.5004         15.2504
 02  7 16 15 12 15.0010000  0 10G30G 6G10G15G17G18G22G23G26G29
  24553802.2164    3774983.68545   2660915.23045                  24553807.3494
        10.7504         10.2504
  20938752.0364    1835547.24948   1430295.41947                  20938755.6224
        31.7504         28.5004
  24107227.0754    3644504.92446   2839871.53146                  24107233.8024
        14.0004         12.5004
  21835833.2634     399964.28047    311420.75646                  21835837.8684
        27.2504         25.2504
  21459028.9504     823990.08447    642070.75147                  21459033.6614
        27.0004         27.5004
  22669882.5754    -453900.79247   -351253.92446                  22669886.8534
        23.2504         21.5004
  23806120.8564     651942.68946    498428.15246                  23806126.2714
        14.5004         12.5004
  21532289.6384    2102110.97948   1613349.95447                  21532293.4464
        32.0004         29.5004
  23144840.6854     222998.83346    173882.37346                  23144845.4194
        16.0004         15.0004
  23544525.1854     724828.05346    564801.14146                  23544530.0484
        17.2504         16.0004
 02  7 16 15 12 30.0010000  0 10G30G 6G10G15G17G18G22G23G26G29
  24571110.8644    3865941.67245   2731791.52945                  24571116.4194
        10.0004          9.5004
  20947733.0284    1882743.05448   1467071.35747                  20947736.5794
        31.7504         28.7504
  24123956.9424    3732426.77746   2908382.01846                  24123963.9074
        13.5004         12.7504
  21838225.4664     412534.56047    321215.79246                  21838229.9894
        27.7504         25.5004
  21463283.1224     846347.63247    659492.21647                  21463287.8804
        26.7504         27.5004
  22668572.4974    -460785.88047   -356618.91046                  22668576.8334
        23.5004         21.5004
  23809947.6614     672052.64146    514098.24846                  23809953.1574
        14.0004         13.2504
  21542470.7244    2155612.02248   1655039.07047                  21542474.5324
        32.2504         29.5004
  23146687.8414     232704.56846    181445.28846                  23146693.5364
        15.7504         14.7504
  23548596.2004     746221.31946    581471.20346                  23548600.7474
        17.0004         16.0004
 02  7 16 15 12 45.0010000  0 10G30G 6G10G15G17G18G22G23G26G29
  24588432.9504    3956970.43345   2802722.94845                  24588439.0794
        10.2504          9.5004
  20956747.7634    1930116.17348   1503985.45847                  20956751.2434
        32.0004         28.5004
  24140709.5914    3820455.94246   2976976.10046                  24140715.4384
        15.7504         13.0004
  21840640.4034     425227.25447    331106.22146                  21840644.9274
        27.2504         25.5004
  21467560.2554     868823.06347    677005.53847                  21467564.9784
        26.7504         27.5004
  22667289.8334    -467525.68247   -361870.68846                  22667294.3564
        23.0004         21.2504
  23813811.8724     692362.81746    529924.35846                  23813817.3104
        13.5004         13.0004
  21552685.1224    2209290.72148   1696866.62147                  21552689.0954
        31.5004         29.2504
  23148569.5524     242595.13946    189152.27146                  23148575.9274
        15.0004         14.7504
  23552701.0284     767797.42146    598283.77146                  23552706.2314
        16.2504         15.2504
 02  7 16 15 13  0.0010000  0 10G30G 6G10G15G17G18G22G23G26G29
  24605768.1694    4048067.19845   2873707.36145                  24605774.4034
        10.7504         10.0004
  20965795.9974    1977664.31948   1541035.94247                  20965799.4544
        31.7504         28.7504
  24157480.9744    3908589.71246   3045651.74146                  24157487.1964
        14.2504         12.2504
  21843078.5754     438040.09047    341090.25946                  21843083.1464
        27.0004         25.2504
  21471859.2164     891414.14647    694608.97847                  21471864.1144
        27.0004         27.5004
  22666034.9114    -474122.09747   -367010.73846                  22666039.2474
        23.5004         21.5004
  23817714.4894     712870.87646    545904.65146                  23817720.0674
        13.5004         12.7504
  21562933.3414    2263144.50548   1738830.59947                  21562937.3134
        31.7504         29.2504
  23150487.3174     252668.67346    197001.79546                  23150492.7314
        16.0004         14.5004
  23556842.0994     789554.26846    615237.16646                  23556846.9384
        16.7504         15.7504
 02  7 16 15 13 15.0020000  0 10G30G 6G10G15G17G18G22G23G26G29
  24623117.7364    4139240.00645   2944751.04745                  24623123.1154
        11.0004         10.0004
  20974878.4794    2025392.97648   1578227.08747                  20974882.1934
        32.0004         28.7504
  24174272.3464    3996835.92546   3114414.98146                  24174278.7094
        13.0004         12.2504
  21845540.0644     450976.14847    351170.31646                  21845544.8114
        27.2504         25.5004
  21476180.6194     914124.51147    712305.36747                  21476185.4124
        26.5004         27.5004
  22664807.2994    -480573.15747   -372037.52346                  22664811.5184
        23.5004         21.5004
  23821655.5024     733580.55446    562042.06146                  23821661.2914
        13.2504         12.5004
  21573215.7684    2317179.03248   1780935.42147                  21573219.8224
        31.5004         29.2504
  23152439.8854     262928.35446    204996.35446                  23152444.5494
        16.7504         14.5004
  23561017.5724     811495.70946    632334.41446                  23561022.0144
        17.7504         15.7504
 02  7 16 15 13 30.0020000  0 10G30G 6G10G15G17G18G22G23G26G29
  24640479.4714    4230475.21045   3015843.36845                  24640484.2644
        10.0004          9.2504
  20983993.8304    2073294.70348   1615553.09247                  20983997.3114
        32.0004         28.7504
  24191084.9324    4085181.46546   3183255.62446                  24191092.2604
        14.2504         12.2504
  21848024.6744     464032.50747    361344.11746                  21848029.3034
        27.2504         25.2504
  21480524.3934     936949.99447    730091.46047                  21480529.0924
        26.7504         27.5004
  22663607.1044    -486878.94447   -376951.10246                  22663611.2754
        23.5004         21.5004
  23825633.4394     754487.97746    578333.53946                  23825639.2174
        13.0004         12.7504
  21583530.7754    2371385.77348   1823174.42847                  21583534.8304
        31.2504         29.2504
  23154426.3774     273372.06646    213134.33446                  23154431.5804
        15.2504         15.0004
  23565227.4474     833618.09246    649572.62546                  23565231.2564
        18.0004         16.0004
 02  7 16 15 13 45.0020000  0 10G30G 6G10G15G17G18G22G23G26G29
  24657852.3074    4321777.13945   3086987.67145                  24657858.1664
         9.5004          9.0004
  20993142.4634    2121371.36048   1653015.39947                  20993146.0024
        32.0004         28.7504
  24207916.4794    4173630.39346   3252176.80946                  24207924.5924
        13.7504         12.7504
  21850532.3384     477208.70247    371611.28847                  21850536.9324
        27.5004         25.7504
  21484890.0024     959890.69247    747967.32947                  21484894.5254
        27.2504         27.7504
  22662434.7524    -493041.10847   -381752.77846                  22662439.2054
        23.5004         21.5004
  23829650.3304     775593.55546    594779.44346                  23829657.2254
        13.5004         12.2504
  21593879.3774    2425766.73048   1865549.19447                  21593883.4084
        31.7504         29.2504
  23156449.3614     283999.37146    221415.39746                  23156455.4794
        16.2504         15.0004
  23569471.4714     855921.55046    666951.94446                  23569475.9364
        17.7504         16.0004
 02  7 16 15 14  0.0020000  0 10G30G 6G10G15G17G18G22G23G26G29
  24675240.1504    4413146.40245   3158184.41045                  24675247.3734
        10.0004          9.5004
  21002324.8304    2169623.99448   1690614.84047                  21002328.2174
        32.2504         28.7504
  24224766.9714    4262183.28946   3321179.01246                  24224774.3344
        13.0004         12.5004
  21853062.3544     490505.70447    381972.59446                  21853067.1464
        27.2504         25.5004
  21489277.9324     982947.60048    765933.75447                  21489282.2214
        28.0004         27.7504
  22661289.3304    -499058.26447   -386441.45846                  22661293.8654
        23.2504         21.5004
  23833704.5414     796898.06346    611380.34246                  23833711.0924
        13.2504         12.7504
  21604261.1824    2480322.65548   1908060.29347                  21604265.2254
        32.0004         29.2504
  23158506.6434     294811.68446    229840.57046                  23158511.2604
        16.7504         15.2504
  23573749.8774     878407.24246    684473.27246                  23573754.6354
        16.7504         15.7504
 02  7 16 15 14 15.0020000  0 10G30G 6G10G15G17G18G22G23G26G29
  24692639.4004    4504577.83045   3229429.61745                  24692645.2364
        11.5004          9.7504
  21011539.3464    2218047.77548   1728347.64047                  21011542.8034
        32.0004         29.0004
  24241636.8614    4350834.96146   3390258.17046                  24241643.7794
        13.2504         12.0004
  21855615.1354     503918.66447    392424.25847                  21855619.8814
        27.2504         25.7504
  21493686.1194    1006115.84547    783986.93447                  21493690.4324
        27.2504         27.7504
  22660171.1354    -504935.16547   -391020.83846                  22660175.2254
        23.7504         21.5004
  23837795.6894     818396.83646    628132.61646                  23837802.3814
        13.2504         12.7504
  21614675.0804    2535048.49048   1950703.79347                  21614679.0884
        31.7504         29.2504
  23160597.9554     305804.45946    238406.39046                  23160602.7254
        15.2504         14.5004
  23578062.2914     901070.62046    702133.07346                  23578067.4244
        16.2504         15.5004
 02  7 16 15 14 30.0020000  0 10G30G 6G10G15G17G18G22G23G26G29
  24710050.0724    4596071.60645   3300723.40045                  24710054.8774
        11.5004         10.0004
  21020787.2294    2266643.36748   1766214.32147                  21020790.6394
        32.5004         29.0004
  24258525.8774    4439585.74546   3459414.59145                  24258532.7094
        12.7504         11.7504
  21858189.8774     517448.17748    402966.74646                  21858194.4244
        28.2504         25.5004
  21498116.6584    1029396.09947    802127.39147                  21498120.9364
        27.2504         27.7504
  22659079.5494    -510670.93247   -395490.26146                  22659083.6864
        23.5004         21.7504
  23841923.8544     840090.61646    645036.85946                  23841929.6784
        13.5004         12.7504
  21625121.2684    2589944.65148   1993480.01447                  21625125.2994
        31.5004         29.2504
  23162724.8074     316978.71146    247113.63146                  23162730.2324
        16.5004         15.0004
  23582409.7134     923912.58846    719932.01546                  23582414.2014
        17.5004         15.7504
 02  7 16 15 14 45.0020000  0 10G30G 6G10G15G17G18G22G23G26G29
  24727472.0964    4687629.09245   3372066.83245                  24727478.2834
        10.7504         10.2504
  21030067.3934    2315412.43448   1804216.17247                  21030071.0254
        32.2504         29.2504
  24275433.1274    4528436.90246   3528649.20945                  24275439.6664
        12.5004         11.2504
  21860786.7834     531095.82748    413601.28747                  21860791.2714
        28.0004         25.7504
  21502567.8074    1052789.76347    820356.22147                  21502572.2484
        26.5004         27.5004
  22658015.5964    -516263.86847   -399848.37846                  22658019.7214
        24.2504         22.0004
  23846088.6744     861981.12546    662094.38446                  23846094.0764
        13.5004         12.7504
  21635600.6504    2645012.47248   2036389.99147                  21635604.7754
        32.0004         29.5004
  23164887.1584     328336.31146    255963.72546                  23164891.9394
        17.7504         15.5004
  23586791.1824     946934.65346    737871.29246                  23586795.3304
        18.0004         15.7504
 02  7 16 15 15  0.0020000  0 10G30G 6G10G15G17G18G22G23G26G29
  24744908.1974    4779247.92345   3443458.07845                  24744914.8544
        11.0004          9.7504
  21039380.5254    2364352.99048   1842351.65747                  21039384.1234
        32.2504         29.2504
  24292360.2914    4617386.21346   3597960.32546                  24292367.2914
        13.0004         12.2504
  21863405.8224     544859.62347    424326.32447                  21863410.2294
        27.7504         26.0004
  21507040.9324    1076295.01347    838672.00247                  21507045.4794
        26.7504         27.2504
  22656977.9164    -521715.68547   -404096.53246                  22656982.0064
        23.7504         21.7504
  23850292.3854     884066.35246    679303.64146                  23850297.8574
        13.5004         12.7504
  21646111.8854    2700249.76648   2079432.03247                  21646115.8814
        32.2504         29.7504
  23167081.9004     339875.71246    264955.48246                  23167086.8934
        16.2504         15.2504
  23591205.3544     970135.29346    755949.71246                  23591209.3264
        17.2504         16.0004
 02  7 16 15 15 15.0020000  0 10G30G 6G10G15G17G18G22G23G26G29
  24762352.8614    4870923.42645   3514893.49645                  24762359.3424
        10.5004          9.5004
  21048725.3934    2413460.86548   1880617.51347                  21048729.0844
        31.7504         29.0004
  24309304.2134    4706429.00346   3667344.23745                  24309310.7994
        12.2504         11.7504
  21866046.1584     558735.37448    435138.60347                  21866050.5064
        28.0004         25.7504
  21511534.2914    1099907.42347    857071.28647                  21511538.7564
        27.2504         27.5004
  22655966.5574    -527030.36447   -408237.82746                  22655970.9514
        23.7504         22.0004
  23854530.4244     906342.24446    696661.46746                  23854535.9794
        13.0004         12.7504
  21656654.7994    2755652.13848   2122602.70347                  21656658.6544
        32.2504         29.7504
  23169311.7994     351592.86246    274085.75746                  23169317.2954
        16.5004         14.7504
  23595653.1584     993510.47746    774164.16446                  23595658.5144
        16.7504         15.7504
 02  7 16 15 15 30.0020000  0 10G30G 6G10G15G17G18G22G23G26G29
  24779808.5574    4962656.27245   3586373.55245                  24779814.8504
        10.5004          9.7504
  21058102.5804    2462736.99148   1919014.47347                  21058106.1544
        32.2504         29.0004
  24326266.5804    4795565.81746   3736801.46145                  24326273.2364
        12.5004         11.7504
  21868708.3614     572724.04548    446038.86447                  21868712.9204
        28.0004         25.7504
  21516048.1824    1123628.11547    875554.94247                  21516052.7054
        27.2504         27.2504
  22654981.8144    -532206.81247   -412271.40446                  22654985.8224
        24.7504         22.0004
  23858806.2524     928809.80446    714168.65346                  23858812.3934
        13.0004         13.2504
  21667228.6354    2811220.19948   2165902.48547                  21667232.4324
        32.2504         30.0004
  23171575.3144     363489.13246    283355.61146                  23171580.1074
        17.0004         15.0004
  23600134.6894    1017061.24146    792515.43246                  23600140.0334
        16.5004         15.5004
 02  7 16 15 15 45.0020000  0 10G30G 6G10G15G17G18G22G23G26G29
  24797276.7294    5054449.60245   3657900.75545                  24797283.3144
        10.5004         10.2504
  21067512.1894    2512185.07148   1957545.42347                  21067515.8694
        32.2504         29.0004
  24343247.2914    4884800.03546   3806334.56145                  24343253.2214
        12.7504         11.2504
  21871392.1974     586829.19947    457029.89446                  21871396.6624
        27.5004         25.5004
  21520583.1274    1147460.56547    894125.68947                  21520587.5574
        26.7504         27.2504
  22654023.3854    -537241.14147   -416194.24746                  22654027.3344
        24.2504         22.0004
  23863118.9944     951472.63146    731827.99046                  23863124.5144
        13.2504         13.2504
  21677835.4554    2866957.35148   2209334.02447                  21677839.3814
        32.7504         30.0004
  23173874.1664     375568.40246    292768.03446                  23173878.8544
        16.7504         15.5004
  23604651.6894    1040791.24746    811006.35046                  23604656.2484
        18.2504         15.5004
 02  7 16 15 16  0.0020000  0 10G30G 6G10G15G17G18G22G23G26G29
  24814754.7214    5146299.26145   3729471.85945                  24814761.8384
        10.2504         10.0004
  21076953.9244    2561801.21848   1996207.34447                  21076957.5924
        32.2504         29.5004
  24360245.8544    4974127.48046   3875940.34045                  24360252.7364
        12.2504         11.2504
  21874098.0024     601046.89347    468108.62147                  21874102.4794
        27.5004         25.7504
  21525138.9324    1171400.73747    912780.37447                  21525143.5724
        27.0004         26.2504
  22653091.9324    -542137.06247   -420009.23246                  22653096.0574
        24.5004         22.0004
  23867468.2214     974327.03446    749636.59946                  23867473.6354
        14.0004         13.2504
  21688473.3694    2922859.46748   2252894.10447                  21688477.0844
        33.2504         30.2504
  23176206.2054     387826.98846    302320.22446                  23176212.0764
        16.0004         14.7504
  23609200.5414    1064696.95346
        18.5004
 02  7 16 15 16 15.0020000  0 10G30G 6G10G15G17G18G22G23G26G29
  24832244.3614    5238206.54645   3801087.85445                  24832252.2644
         9.5004          9.7504
  21086427.7834    2611587.25348   2035001.64147                  21086431.5454
        32.2504         29.5004
  24377261.7364    5063549.57046   3945619.82045                  24377267.3504
        12.0004         11.0004
  21876825.3544     615378.95648    479276.46347                  21876829.9004
        28.0004         25.7504
  21529715.4004    1195450.44947    931520.40547                  21529720.0644
        26.5004         27.0004
  22652187.3074    -546892.59747   -423714.82346                  22652191.2214
        25.0004         22.0004
  23871853.0254     997374.71546    767595.83346                  23871858.9324
        13.0004         12.7504
  21699142.9004    2978928.09748   2296583.94247                  21699146.5214
        33.2504         30.2504
  23178573.7134     400267.17146    312013.88746                  23178578.9044
        16.7504         15.0004
  23613782.3614    1088780.42646
        16.5004
 02  7 16 15 16 30.0020000  0 10G30G 6G10G15G17G18G22G23G26G29
  24849743.2134    5330167.50445   3872745.67245                  24849750.6824
         8.7504          9.2504
  21095933.0184    2661539.32748   2073925.31447                  21095936.8734
        31.7504         29.5004
  24394295.6354    5153062.12046   4015369.80845                  24394302.6354
        12.0004         11.7504
  21879573.6824     629821.61848    490530.48647                  21879578.0534
        28.0004         26.0004
  21534311.8224    1219605.95047    950342.87347                  21534316.6154
        26.2504         26.7504
  22651307.6974    -551511.39847   -427313.87046                  22651311.8464
        24.2504         22.0004
  23876275.6504    1020612.06946    785702.84846                  23876281.6744
        13.0004         13.2504
  21709843.3144    3035159.18448   2340400.36547                  21709847.1004
        33.2504         30.5004
  23180975.0104     412885.36446    321846.26346                  23180980.2254
        17.2504         15.0004
  23618398.7604    1113037.82946
        16.7504
 02  7 16 15 16 45.0020000  0 10G30G 6G10G15G17G18G22G23G26G29
  24867254.6194    5422184.20945   3944446.94145                  24867261.1824
         8.0004          9.0004
  21105471.1504    2711660.07648   2112980.42647                  21105474.9824
        32.5004         29.7504
  24411346.8934    5242667.32746   4085192.01145                  24411352.9164
        12.0004         11.2504
  21882343.3074     644377.41747    501872.67547                  21882347.7604
        27.7504         26.0004
  21538929.1664    1243869.70847    969249.69947                  21538933.8774
        26.2504         26.7504
  22650455.5104    -555990.68047   -430804.20946                  22650459.3774
        24.5004         22.0004
  23880734.5414    1044041.72846    803959.70946                  23880739.8504
        13.5004         13.0004
  21720574.9554    3091555.08048   2384345.20947                  21720578.5414
        33.2504         30.5004
  23183410.8544     425684.53146    331819.67546                  23183415.6464
        17.0004         15.5004
  23623048.5724    1137472.07846     17773.10456                  23623052.7444
        17.0004         16.0004
 02  7 16 15 17  0.0020000  0 10G30G 6G10G15G17G18G22G23G26G29
  24884774.9474    5514258.06345   4016192.70345                  24884782.5924
         7.7504          9.0004
  21115041.2214    2761951.30448   2152168.37547                  21115044.8894
        32.2504         29.7504
  24428416.7294    5332366.68246   4155087.55845                  24428422.7174
        12.2504         11.7504
  21885135.4394     659048.14648    513304.41447                  21885139.9044
        28.5004         25.7504
  21543567.6744    1268243.56947    988242.31747                  21543572.0684
        27.0004         27.0004
  22649630.3384    -560328.45947   -434184.27346                  22649634.4514
        25.0004         22.0004
  23885229.7364    1067665.53246    822367.85146                  23885236.0764
        13.2504         13.0004
  21731338.2754    3148117.28348   2428419.64747                  21731342.1544
        33.0004         30.5004
  23185881.6894     438666.64946    341935.63346                  23185887.1864
        17.7504         15.5004
  23627732.5884    1162085.05746     36952.05946                  23627736.8304
        18.0004         15.7504
 02  7 16 15 17 15.0020000  0 10G30G 6G10G15G17G18G22G23G26G29
  24902305.7754    5606384.26045   4087979.26245                  24902312.8114
         7.5004          9.0004
  21124642.8074    2812408.60548   2191485.73447                  21124646.3114
        32.5004         29.7504
  24445502.6434    5422155.43046   4225052.78545                  24445509.3114
        12.0004         11.7504
  21887948.0724     673829.27048    524822.17747                  21887952.4434
        28.2504         25.7504
  21548225.9794    1292722.83647   1007317.07047                  21548230.1154
        27.5004         27.2504
  22648830.5724    -564529.12547   -437457.50946                  22648834.2754
        24.2504         22.2504
  23889761.2294    1091479.06646    840923.85746                  23889767.8964
        13.0004         13.2504
  21742132.6194    3204841.11848   2472620.02447                  21742136.6394
        33.0004         30.5004
  23188385.3614     451827.73446    352191.04346                  23188390.0844
        17.2504         15.5004
  23632448.9244    1186872.49546     56266.95946                  23632453.2254
        17.2504         15.7504
 02  7 16 15 17 30.0020000  0 10G30G 6G10G15G17G18G22G23G26G29
  24919846.1664    5698562.15344   4159806.11445                  24919853.6114
         6.5004          8.7504
  21134276.1434    2863031.63348   2230932.22947                  21134279.8694
        32.2504         29.5004
  24462605.7834    5512032.76546   4295087.00745                  24462612.2994
        12.5004         11.7504
  21890781.6824     688720.43447    536425.68447                  21890786.1934
        27.7504         25.7504
  21552904.2684    1317307.42447   1026473.89347                  21552908.5214
        27.0004         27.0004
  22648057.2524    -568592.58347   -440623.82246                  22648061.0964
        24.2504         22.2504
  23894328.6434    1115482.06146    859627.45546                  23894334.8074
        13.0004         12.2504
  21752957.5414    3261725.96948   2516945.87347                  21752961.3964
        33.2504         30.7504
  23190924.2834     465167.67846    362585.83346                  23190929.1234
        17.5004         15.7504
  23637198.9944    1211834.20846     75717.65346                  23637203.0964
        17.2504         15.7504
 02  7 16 15 17 45.0020000  0 10G30G 6G10G15G17G18G22G23G26G29
  24937396.9634    5790793.02944   4231674.21945                  24937405.2404
         6.2504          8.5004
  21143941.4084    2913822.15048   2270509.23647                  21143944.9944
        33.0004         29.7504
  24479726.0334    5602000.24146   4365191.49546                  24479732.8544
        12.5004         12.0004
  21893636.5184     703723.43748    548116.34547                  21893641.0534
        28.0004         26.0004
  21557602.3614    1341998.88647   1045713.99747                  21557606.6624
        26.5004         27.0004
  22647310.8614    -572516.93947   -443681.74346                  22647314.7294
        24.7504         22.0004
  23898932.5644    1139676.33846    878480.14846                  23898938.6354
        12.7504         12.5004
  21763812.9474    3318773.34948   2561398.36747                  21763816.9904
        33.2504         30.7504
  23193497.5184     478688.54646    373121.59346                  23193502.4164
        18.0004         15.7504
  23641982.4004    1236972.05846     95305.61246                  23641987.0884
        16.7504         15.7504
 02  7 16 15 18  0.0020000  0 10G30G 6G10G15G17G18G22G23G26G29
  24954958.6584    5883075.75044   4303582.73845                  24954966.6784
         6.7504          8.5004
  21153638.1894    2964779.27648   2310216.07147                  21153641.7644
        33.0004         29.7504
  24496863.0414    5692056.45845   4435365.11945                  24496868.8304
        11.7504         11.5004
  21896512.4864     718837.31747    559893.39547                  21896517.1154
        27.7504         26.2504
  21562321.3544    1366796.29147   1065036.64747                  21562325.7254
        26.2504         26.7504
  22646590.2754    -576302.92247   -446631.84546                  22646593.7324
        24.5004         22.2504
  23903573.2524    1164061.09246    897481.23446                  23903579.2174
        13.2504         12.7504
  21774699.5334    3375982.15248   2605976.64447                  21774703.5184
        33.2504         30.7504
  23196103.7364     492389.76146    383797.89546                  23196109.3144
        16.7504         15.7504
  23646799.7754    1262285.65046    115030.49946                  23646804.3934
        17.7504         15.7504
 02  7 16 15 18 15.0020000  0 10G30G 6G10G15G17G18G22G23G26G29
  24972529.0724    5975409.28544   4375530.89345                  24972536.5534
         7.0004          8.2504
  21163366.5574    3015902.50148   2350052.33347                  21163370.0724
        32.7504         29.7504
  24514017.2994    5782200.65146   4505607.29045                  24514023.4514
        12.0004         11.7504
  21899409.7294     734061.68348    571756.54247                  21899414.2174
        28.0004         26.2504
  21567060.0964    1391699.06547   1084441.40247                  21567064.5374
        26.5004         26.7504
  22645896.2994    -579950.84947   -449474.37146                  22645899.9904
        24.7504         22.2504
  23908249.9324    1188635.78846    916630.33746                  23908256.4124
        13.5004         13.2504
  21785616.7134    3433351.60048   2650680.09747                  21785620.7094
        33.2504         31.0004
  23198745.6664     506271.04346    394614.49846                  23198750.7874
        17.2504         15.2504
  23651650.5334    1287774.32546    134891.82346                  23651654.4944
        18.2504         16.2504
 02  7 16 15 18 30.0020000  0 10G30G 6G10G15G17G18G22G23G26G29
  24990108.1894    6067791.00744   4447516.54645                  24990114.8344
         6.7504          8.0004
  21173126.3304    3067189.37548   2390016.11747                  21173129.8574
        33.2504         30.0004
  24531187.3304    5872430.05745   4575915.85045                  24531193.4004
        11.5004         11.5004
  21902327.3464     749393.98248    583703.79247                  21902331.9284
        28.0004         26.5004
  21571818.5104    1416704.78247   1103926.38247                  21571822.8224
        26.5004         26.7504
  22645227.7834    -583462.97547   -452211.06746                  22645231.3224
        25.0004         22.2504
  23912961.8224    1213398.10846    935925.63746                  23912967.3544
        13.5004         13.5004
  21796563.8074    3490879.04048   2695506.66547                  21796567.8504
        33.5004         31.0004
  23201421.1744     520330.33546    405569.82546                  23201426.0494
        17.7504         15.7504
  23656533.3224    1313435.88646    154887.85246                  23656537.5414
        17.5004         15.7504
 02  7 16 15 18 45.0020000  0 10G30G 6G10G15G17G18G22G23G26G29
  25007697.8544    6160224.35244   4519542.46445                  25007706.1664
         6.7504          8.2504
  21182917.7834    3118643.82648   2430110.47847                  21182921.3114
        32.7504         29.7504
  24548374.2134    5962748.21046   4646293.57745                  24548381.3304
        12.2504         11.7504
  21905266.0494     764838.09648    595738.17347                  21905270.6194
        28.0004         26.2504
  21576597.4944    1441817.28147   1123494.56447                  21576601.6544
        26.5004         27.0004
  22644586.5254    -586835.24647   -454838.79346                  22644590.0644
        25.5004         22.2504
  23917710.3854    1238351.98046    955370.19946                  23917716.1394
        13.2504         13.2504
  21807541.9944    3548568.08748   2740459.16147                  21807545.6624
        33.7504         31.2504
  23204131.5804     534571.86046    416667.12846                  23204136.3734
        17.7504         15.5004
  23661450.5414    1339274.30246    175021.69746                  23661455.0414
        17.7504         15.7504
 02  7 16 15 19  0.0020000  0 10G30G 6G10G15G17G18G22G23G26G29
  25025296.6974    6252708.74144   4591608.11245                  25025305.5494
         6.7504          8.2504
  21192741.0964    3170265.66748   2470335.27647                  21192744.5644
        33.0004         30.0004
  24565578.1744    6053154.57846   4716740.05845                  24565583.9284
        12.7504         11.7504
  21908226.4474     780393.76748    607859.47847                  21908231.1464
        28.2504         26.2504
  21581396.4394    1467036.34347   1143145.77847                  21581400.7294
        26.5004         27.0004
  22643970.9324    -590067.72747   -457357.59746                  22643974.5184
        25.2504         22.2504
  23922495.6434    1263497.22746    974963.90146                  23922502.0414
        13.7504         14.2504
  21818550.3934    3606418.27048   2785537.21747                  21818554.2254
        33.7504         31.5004
  23206876.2054     548995.60146    427906.44546                  23206881.1154
        18.0004         16.0004
  23666399.9164    1365289.63146    195293.40746                  23666404.2174
        16.7504         15.7504
 02  7 16 15 19 15.0020000  0 10G30G 6G10G15G17G18G22G23G26G29
  25042905.2604    6345241.83845   4663711.75445                  25042915.1664
         7.5004          8.0004
  21202595.8144    3222052.98548   2510689.00447                  21202599.2604
        33.0004         29.7504
  24582798.2914    6143646.89146   4787253.50046                  24582804.8424
        12.5004         12.2504
  21911207.4714     796059.03247    620066.18947                  21911212.1934
        27.7504         26.2504
  21586215.2684    1492359.93147   1162878.44747                  21586219.7094
        26.2504         26.5004
  22643382.2604    -593162.09747   -459768.77346                  22643385.7644
        25.5004         22.5004
  23927316.2054    1288831.97546
        13.2504
  21829589.1974    3664427.33148   2830739.07447                  21829592.8654
        33.7504         31.2504
  23209655.4714     563599.97946    439286.49246                  23209659.9944
        18.0004         15.7504
  23671384.0574    1391480.13746    215701.60946                  23671388.9084
        16.7504         15.2504
 02  7 16 15 19 30.0020000  0 10G30G 6G10G15G17G18G22G23G26G29
  25060522.3224    6437819.89045   4735850.40645                  25060530.2484
         8.5004          8.2504
  21212481.6114    3274002.37348   2551169.03047                  21212485.0104
        33.0004         29.7504
  24600034.4324    6234221.38646   4857830.97846                  24600041.1934
        13.0004         12.0004
  21914208.4864     811830.67847    632355.78747                  21914213.2324
        27.7504         26.2504
  21591053.5024    1517784.64647   1182689.91547                  21591057.9324
        26.5004         26.5004
  22642818.7834    -596121.52147   -462074.80546                  22642822.2754
        25.2504         22.5004
  23932173.1434    1314352.81746
        13.7504
  21840657.4554    3722591.70648   2876061.95347                  21840661.1824
        33.7504         31.2504
  23212467.5104     578381.94546    450804.92446                  23212472.8304
        16.7504         15.5004
  23676401.0334    1417842.51446    236243.73346                  23676405.6504
        17.5004         15.7504
 02  7 16 15 19 45.0020000  0 10G30G 6G10G15G17G18G22G23G26G29
  25078149.8224    6530445.39345   4808026.04245                  25078159.5184
         9.0004          9.0004
  21222398.4634    3326116.54248   2591777.45347                  21222401.9554
        32.5004         29.7504
  24617285.9084    6324880.57246   4928474.43945                  24617292.5414
        13.0004         11.7504
  21917230.6274     827711.40948    644730.38647                  21917235.3504
        28.0004         26.2504
  21595911.5494    1543313.29347   1202582.36847                  21595916.0254
        26.2504         26.7504
  22642282.2294    -598943.15347   -464273.45246                  22642285.6864
        26.0004         22.7504
  23937064.7994    1340062.66346      4016.23456                  23937070.8814
        13.2504         13.0004
  21851756.1434    3780913.84248   2921507.76247                  21851759.7644
        34.0004         31.2504
  23215315.0104     593344.45646    462464.05846                  23215320.1664
        17.0004         15.5004
  23681451.1664    1444379.73146    256922.09146                  23681455.2564
        18.0004         16.0004
 02  7 16 15 20  0.0020000  0 10G30G 6G10G15G17G18G22G23G26G29
  25095784.0414    6623115.71145   4880236.63445                  25095790.7794
         8.7504          9.0004
  21232346.6114    3378393.39748   2632512.64647                  21232350.2324
        32.2504         29.5004
  24634554.1354    6415621.89346   4999181.89646                  24634560.3694
        14.0004         12.5004
  21920272.5184     843698.96147    657188.21647                  21920277.2404
        27.7504         26.5004
  21600788.6354    1568943.60347   1222554.03247                  21600793.0884
        26.2504         26.7504
  22641770.9084    -601628.85647   -466366.19446                  22641774.1664
        25.7504         23.0004
  23941993.3774    1365959.39646     24195.50446                  23941998.9904
        14.0004         13.5004
  21862883.6504    3839391.37248   2967074.65847                  21862887.3074
        33.7504         31.2504
  23218197.3074     608485.70246    474262.44046                  23218201.2214
        18.7504         16.2504
  23686533.9164    1471089.66546    277735.03846                  23686538.2874
        17.5004         15.7504
 02  7 16 15 20 15.0020000  0 10G30G 6G10G15G17G18G22G23G26G29
  25113427.5494    6715831.14745   4952482.33545                  25113435.7564
         8.2504          8.2504
  21242325.5724    3430833.52148   2673375.06247                  21242329.3574
        32.5004         29.5004
  24651836.8934    6506445.66946   5069953.64346                  24651843.3034
        13.5004         12.0004
  21923335.6114     859793.91547    669729.74747                  21923340.4394
        27.7504         26.5004
  21605685.5644    1594676.10447   1242605.33447                  21605689.9124
        26.7504         27.0004
  22641285.9244    -604177.86947   -468352.42046                  22641289.4754
        26.2504         23.0004
  23946957.2054    1392043.64346     44520.89646                  23946962.3144
        14.5004         13.5004
  21874041.2134    3898024.62248   3012762.89247                  21874045.1044
        33.7504         31.2504
  23221111.8694     623806.54646    486200.77646                  23221116.8854
        17.0004         15.5004
  23691649.3464    1497973.38446    298683.41846                  23691654.0104
        17.0004         15.5004
 02  7 16 15 20 30.0020000  0 10G30G 6G10G15G17G18G22G23G26G29
  25131078.7364    6808589.70245   5024761.64445                  25131084.7604
         8.2504          8.0004
  21252335.0724    3483435.31648   2714363.45147                  21252338.7644
        32.0004         29.2504
  24669135.3224    6597349.80746   5140787.97046                  24669141.2294
        13.0004         12.5004
  21926418.4794     875994.60948    682353.66747                  21926423.2714
        28.2504         26.5004
  21610601.7994    1620509.22647   1262735.04047                  21610606.0884
        27.0004         27.0004
  22640826.8304    -606591.72247   -470233.31846                  22640830.4754
        26.5004         23.2504
  23951956.4944    1418313.76946     64991.11046                  23951962.2954
        14.5004         13.2504
  21885228.1974    3956811.66048   3058570.96747                  21885231.9714
        33.7504         31.2504
  23224061.4554     639305.70246    498278.08246                  23224066.9864
        17.2504         15.5004
  23696797.8074    1525028.98146    319765.71646                  23696802.4944
        17.0004         15.7504
 02  7 16 15 20 45.0020000  0 10G30G 6G10G15G17G18G22G23G26G29
  25148737.6354    6901389.78145   5097073.30545                  25148744.0214
         8.7504          8.2504
  21262375.4394    3536197.50248   2755476.83247                  21262379.0724
        32.0004         29.2504
  24686448.7364    6688332.80646   5211683.76646                  24686455.8654
        13.2504         12.2504
  21929521.3224     892299.78948    695059.01247                  21929525.9754
        28.2504         26.7504
  21615535.8144    1646441.74347   1282942.19747                  21615540.1864
        26.2504         26.7504
  22640392.7134    -608871.34647   -472009.63046                  22640396.2644
        26.2504         23.5004
  23956990.0644    1444768.66846     85605.31746                  23956995.7014
        13.7504         13.0004
  21896443.7134    4015751.08948   3104497.78247                  21896447.5214
        33.5004         31.2504
  23227044.8544     654982.19246    510493.55146                  23227049.2954
        18.2504         15.5004
  23701978.8544    1552255.72346    340981.37246                  23701983.2714
        17.5004         16.0004
 02  7 16 15 21  0.0020000  0 10G30G 6G10G15G17G18G22G23G26G29
  25166405.9244    6994232.02045   5169417.82045                  25166411.5374
         9.5004          7.7504
  21272446.4634    3589121.17348   2796716.03847                  21272450.0964
        32.2504         29.2504
  24703777.9324    6779395.39346   5282641.56746                  24703784.7174
        13.5004         12.2504
  21932644.2524     908710.45848    707846.54947                  21932648.8574
        28.5004         26.7504
  21620489.6504    1672474.47447   1303227.44547                  21620494.3264
        26.2504         26.7504
  22639984.8614    -611015.65247   -473680.50446                  22639988.3654
        26.5004         23.5004
  23962059.4634    1471409.27946    106364.22846                  23962065.4984
        13.5004         13.0004
  21907688.7524    4074843.64148   3150543.91647                  21907692.6194
        33.7504         31.2504
  23230062.0804     670837.38846    522848.25546                  23230065.9364
        18.2504         15.7504
  23707192.5104    1579654.61846    362331.17946                  23707196.4244
        17.0004         15.7504
 02  7 16 15 21 15.0020000  0 10G30G 6G10G15G17G18G22G23G26G29
  25184081.4864    7087117.82745   5241796.34745                  25184089.0614
         9.5004          8.2504
  21282548.7754    3642208.04248   2838082.41547                  21282552.3854
        32.0004         29.2504
  24721122.3934    6870538.89346   5353662.42945                  24721128.1824
        13.7504         11.2504
  21935787.4474     925228.45548    720717.71947                  21935792.0184
        28.2504         27.0004
  21625463.4244    1698609.19547   1323592.16147                  21625467.9244
        27.2504         27.2504
  22639602.7364    -613022.66747   -475244.38746                  22639606.2524
        26.5004         23.5004
  23967164.3934    1498237.48646    127269.33846                  23967170.3694
        13.5004         13.0004
  21918963.0724    4134090.78248   3196710.50947                  21918966.9754
        33.5004         31.2504
  23233112.9004     686873.23446    535343.72846                  23233117.5184
        17.5004         15.5004
  23712439.2834    1607227.67846    383816.68946                  23712443.7134
        16.5004         16.0004
 02  7 16 15 21 30.0020000  0  9G 6G10G15G17G18G22G23G26G29
  21292682.1974    3695458.56148   2879576.31047                  21292685.7834
        32.5004         29.2504
  24738482.0964    6961763.48046   5424746.47645                  24738487.9324
        13.5004         11.7504
  21938951.1354     941854.20548    733672.85447                  21938955.7754
        28.0004         26.7504
  21630456.5184    1724846.41348   1344036.74747                  21630460.4434
        28.2504         27.2504
  22639247.2294    -614891.78747   -476700.82846                  22639250.7094
        26.5004         23.5004
  23972306.0884    1525253.71246    148320.96146                  23972312.0764
        14.2504         13.0004
  21930267.0964    4193492.71248   3242997.71247                  21930270.9634
        33.7504         31.0004
  23236198.5334     703090.49346    547980.57946                  23236203.8184
        17.2504         15.7504
  23717719.6114    1634975.35946    405438.27746                  23717724.2294
        16.7504         15.7504
 02  7 16 15 21 45.0020000  0  9G 6G10G15G17G18G22G23G26G29
  21302846.0644    3748872.28648   2921197.37247                  21302849.6394
        31.5004         29.0004
  24755856.6044    7053068.26746   5495893.03745                  24755863.4864
        12.7504         11.7504
  21942135.1584     958587.17147    746711.53047                  21942140.0574
        27.7504         26.5004
  21635468.2364    1751185.45347   1364560.67347                  21635472.4324
        27.2504         27.2504
  22638917.5334    -616623.29547   -478050.02746                  22638921.2134
        26.7504         23.7504
  23977483.0184    1552457.46246    169518.67846                  23977488.3964
        14.5004         13.2504
  21941600.0334    4253048.76248   3289405.01747                  21941603.8304
        33.5004         31.0004
  23239320.2994     719488.97246    560758.64846                  23239324.9984
        18.5004         16.2504
  23723033.1044    1662897.42546    427195.75546                  23723037.8504
        17.0004         15.7504
 02  7 16 15 22  0.0020000  0  9G 6G10G15G17G18G22G23G26G29
  21313041.7214    3802449.95948   2962946.19847                  21313045.3544
        32.0004         29.0004
  24773246.9794    7144453.69946   5567102.40245                  24773254.6464
        13.0004         11.5004
  21945340.0024     975428.13348    759834.36247                  21945344.9824
        28.0004         26.5004
  21640499.8544    1777627.13947   1385164.58647                  21640504.3184
        27.0004         27.0004
  22638614.4554    -618216.26547   -479291.28846                  22638617.8894
        26.5004         23.7504
  23982694.8854    1579849.63946    190863.23546                  23982700.3694
        14.2504         13.2504
  21952962.6194    4312759.39448   3335932.77047                  21952966.4864
        33.2504         30.7504
  23242474.5884     736069.71846    573678.70846                  23242478.3964
        18.0004         16.0004
  23728379.9714    1690994.72146    449089.76846                  23728384.3184
        16.7504         16.0004
 02  7 16 15 22 15.0020000  0  9G 6G10G15G17G18G22G23G26G29
  21323266.9084    3856184.59448   3004817.32647                  21323270.5884
        31.7504         29.0004
  24790650.1744    7235912.59546   5638368.98445                  24790657.9944
        12.5004         11.0004
  21948563.9634     992370.22247    773035.99147                  21948568.8614
        27.7504         26.5004
  21645550.2914    1804164.57047   1405843.10947                  21645554.7914
        27.5004         27.2504
  22638336.4474    -619677.41447   -480429.82646                  22638339.8344
        27.0004         23.7504
  23987942.3304    1607423.27946    212349.19046                  23987948.5764
        14.5004         13.5004
  21964353.1744    4372617.43248   3382575.38947                  21964357.2294
        33.0004         30.5004
  23245662.9714     752826.07146    586735.62846                  23245667.9514
        17.0004         16.0004
  23733759.0964    1719260.63346    471115.17546                  23733763.2094
        17.7504         15.7504
 02  7 16 15 22 30.0020000  0  9G 6G10G15G17G18G22G23G26G29
  21333523.9474    3910083.08748   3046816.13347                  21333527.5334
        32.2504         29.0004
  24808069.9554    7327451.44646   5709697.94745                  24808077.2714
        13.0004         11.2504
  21951808.4944    1009420.10748    786321.62147                  21951813.2644
        28.0004         26.7504
  21650619.5414    1830804.45048   1426601.45647                  21650623.7134
        28.2504         27.5004
  22638084.4864    -620999.76447   -481460.21446                  22638087.9434
        26.5004         24.0004
  23993225.6744    1635185.46146    233982.05146                  23993231.8964
        15.0004         13.2504
  21975773.0804    4432629.40948   3429337.95647                  21975777.1004
        32.2504         30.5004
  23248887.0574     769765.23146    599935.00346                  23248891.4634
        18.5004         16.0004
  23739170.8144    1747701.93246    493277.23846                  23739175.4794
        17.0004         15.7504
 02  7 16 15 22 45.0020000  0  9G 6G10G15G17G18G22G23G26G29
  21343810.9474    3964142.78848   3088940.55947                  21343814.5684
        32.0004         29.2504
  24825504.0964    7419067.23946   5781086.81745                  24825511.6114
        12.7504         11.0004
  21955073.0724    1026575.13448    799689.17647                  21955077.7604
        28.2504         27.7504
  21655708.1044    1857544.14548   1447437.57847                  21655712.0534
        28.0004         27.7504
  22637858.9244    -622185.68847   -482384.29446                  22637862.4044
        26.7504         23.7504
  23998543.0574    1663133.26846    255759.56246                  23998548.7294
        14.5004         13.2504
  21987221.6114    4492792.42448   3476218.21247                  21987225.7834
        32.2504         30.2504
  23252145.0574     786884.72646
        18.5004
  23744615.4084    1776316.29146    515574.14146                  23744620.2484
        16.2504         15.7504
 02  7 16 15 23  0.0020000  0  9G 6G10G15G17G18G22G23G26G29
  21354128.7134    4018363.11748   3131190.15547                  21354132.3224
        32.0004         29.2504
  24842952.7994    7510759.06946   5852534.93445                  24842960.3034
        12.2504         10.5004
  21958357.5724    1043834.80348    813138.27747                  21958362.1194
        28.5004         26.7504
  21660814.8854    1884383.10047   1468351.04847                  21660819.0214
        27.2504         27.0004
  22637659.0024    -623235.60347   -483202.39146                  22637662.5534
        26.2504         23.7504
  24003896.7834    1691266.25846    277681.37646                  24003902.0804
        14.7504         13.2504
  21998698.8384    4553105.71048   3523215.57247                  21998703.0574
        32.0004         30.2504
  23255436.3384     804184.39846
        18.0004
  23750093.8854    1805103.19346    538005.53646                  23750098.8654
        16.2504         15.7504
 02  7 16 15 23 15.0020000  0  9G 6G10G15G17G18G22G23G26G29
  21364477.3384    4072746.13748   3173566.51947                  21364480.9594
        32.0004         29.2504
  24860416.0414    7602528.68246   5924043.66645                  24860424.0144
        12.5004         11.0004
  21961662.0884    1061201.11748    826670.47347                  21961666.8344
        28.0004         26.7504
  21665941.2444    1911323.29347   1489343.41147                  21665945.7444
        26.7504         26.5004
  22637485.8464    -624147.32647   -483912.79646                  22637489.5724
        26.5004         23.5004
  24009286.2364    1719586.60446    299749.17846                  24009291.8734
        15.0004         14.0004
  22010204.9244    4613571.01648   3570331.38247                  22010209.0144
        32.0004         30.0004
  23258763.3144     821666.45446
        18.2504
  23755605.0184    1834064.89546    560573.11646                  23755610.0804
        16.2504         15.5004
 02  7 16 15 23 30.0030000  0  9G 6G10G15G17G18G22G23G26G29
  21374857.1944    4127293.30248   3216070.78947                  21374860.7804
        31.7504         29.2504
  24877894.2724    7694379.75646   5995615.88745                  24877900.3544
        12.5004         10.7504
  21964986.7334    1078673.08348    840284.99747                  21964991.5504
        28.0004         26.7504
  21671087.2024    1938364.24647   1510414.28547                  21671091.5974
        27.0004         27.0004
  22637337.6944    -624922.87547   -484517.10946                  22637341.2694
        25.7504         23.5004
  24014711.4604    1748094.01846    321962.73246                  24014717.1674
        15.2504         13.5004
  22021740.1244    4674189.93748   3617566.89447                  22021744.2144
        31.7504         30.0004
  23262124.6164     839330.25946     11935.56356                  23262128.9054
        17.7504         15.7504
  23761149.9374    1863201.24346    583276.78846                  23761155.0584
        17.0004         15.7504
 02  7 16 15 23 45.0030000  0  9G 6G10G15G17G18G22G23G26G29
  21385268.1084    4182001.03148   3258700.17147                  21385271.4954
        32.2504         29.2504
  24895387.5224    7786303.36546   6067244.58345                  24895394.4404
        12.5004         10.5004
  21968332.1014    1096252.04148    853982.89247                  21968336.9294
        28.2504         26.7504
  21676252.0934    1965506.14047   1531563.80847                  21676256.3704
        27.7504         27.2504
  22637216.8584    -625558.29947   -485012.21746                  22637220.4914
        26.0004         23.2504
  24020171.1404    1776788.33546    344321.94046                  24020176.7654
        15.0004         13.7504
  22033304.2494    4734957.87348   3664918.52447                  22033308.4444
        32.0004         30.2504
  23265520.2024     857177.40346     25842.45146                  23265526.0734
        16.7504         15.5004
  23766727.6244    1892512.18846    606116.48546                  23766732.1124
        17.5004         16.0004
 02  7 16 15 24  0.0030000  0  9G 6G10G15G17G18G22G23G26G29
  21395708.7964    4236867.84848   3301453.52147                  21395712.3584
        32.0004         29.2504
  24912893.5074    7878300.17646   6138930.37145                  24912899.4374
        12.2504          9.5004
  21971696.7334    1113934.00248    867761.04647                  21971701.3744
        28.2504         26.7504
  21681435.8274    1992745.62948   1552789.38347                  21681439.7654
        28.0004         27.7504
  22637121.5074    -626058.47547   -485401.94746                  22637125.1044
        25.7504         23.5004
  24025666.4444    1805666.44146    366824.34646                  24025672.7374
        14.7504         13.7504
  22044896.2104    4795873.47048   3712385.21147                  22044900.3004
        32.2504         30.2504
  23268951.0304     875204.25746     39889.36446                  23268956.3974
        17.7504         16.0004
  23772337.6554    1921994.79646    629089.97046                  23772341.7334
        17.2504         16.0004
 02  7 16 15 24 15.0030000  0  9G 6G10G15G17G18G22G23G26G29
  21406180.4834    4291896.37948   3344332.88347                  21406184.0694
        32.2504         29.2504
  24930414.2494    7970372.63645   6210675.10545                  24930420.6124
        11.7504          9.2504
  21975081.7804    1131721.72848    881621.61947                  21975086.4444
        28.2504         26.7504
  21686638.1944    2020085.37347   1574093.06947                  21686642.2614
        27.5004         27.2504
  22637052.8194    -626420.68847   -485684.16846                  22637056.6874
        25.7504         23.5004
  24031198.1474    1834731.13246    389472.17146                  24031203.6904
        15.7504         13.2504
  22056516.2574    4856939.14248   3759968.84247                  22056520.4874
        31.7504         30.2504
  23272415.5774     893413.70146     54078.56746                  23272420.5114
        17.0004         16.0004
  23777981.1874    1951651.75646    652199.29546                  23777985.7104
        17.2504         16.0004
 02  7 16 15 24 30.0030000  0  9G 6G10G15G17G18G22G23G26G29
  21416682.2964    4347085.49948   3387337.37647                  21416685.8004
        32.0004         29.2504
  24947948.7104    8062519.24445   6282477.59645                  24947955.9334
        11.7504         10.0004
  21978486.4294    1149614.11448    895563.74347                  21978491.2224
        28.2504         27.0004
  21691859.4374    2047524.08547   1595473.88947                  21691863.9254
        26.7504         26.7504
  22637009.9214    -626645.77947   -485859.54446                  22637013.6474
        25.7504         23.7504
  24036763.4604    1863981.10346    412264.36046                  24036769.3434
        15.0004         13.2504
  22068164.9214    4918153.47848   3807668.31347                  22068169.1164
        31.0004         29.7504
  23275915.7264     911804.94646     68409.43046                  23275920.7884
        17.5004         16.0004
  23783657.5154    1981482.23046    675443.83946                  23783662.3314
        17.0004         15.7504
 02  7 16 15 24 45.0030000  0  9G 6G10G15G17G18G22G23G26G29
  21427214.9834    4402433.32948   3430465.54147                  21427218.5814
        32.0004         29.2504
  24965496.8274    8154737.81945   6354336.16645                  24965503.8744
        11.5004         10.0004
  21981910.8974    1167609.21548    909585.90947                  21981915.4794
        28.5004         27.0004
  21697099.4764    2075059.95247   1616930.40647                  21697103.9764
        27.0004         27.0004
  22636992.7334    -626735.50347   -485929.44146                  22636996.4484
        26.0004         23.5004
  24042364.0544    1893414.65146    435199.57946                  24042369.6794
        15.0004         13.2504
  22079841.5464    4979514.36748   3855481.98347                  22079845.9294
        31.2504         29.7504
  23279449.7574     930376.39446     82880.69246                  23279454.7614
        17.5004         15.7504
  23789366.4214    2011484.44046    698822.21346                  23789371.8354
        16.0004         15.5004
 02  7 16 15 25  0.0030000  0  9G 6G10G15G17G18G22G23G26G29
  21437778.3514    4457944.05848   3473720.63547                  21437781.8904
        32.0004         29.5004
  24983060.4764    8247032.10645   6426253.77045                  24983066.1834
        11.2504          9.7504
  21985355.7574    1185711.19048    923691.34947                  21985360.6794
        28.5004         26.7504
  21702358.9524    2102697.10947   1638465.86147                  21702363.3944
        27.5004         26.7504
  22637002.3194    -626685.59747   -485890.52546                  22637006.0814
        26.2504         23.5004
  24048001.0624    1923035.90346    458281.06846                  24048006.8044
        15.0004         13.5004
  22091546.6244    5041025.69148   3903412.87347                  22091551.0894
        30.5004         29.5004
  23283019.0154     949132.49446     97495.85346                  23283024.0544
        17.7504         16.0004
  23795109.2574    2041662.57646    722337.65846                  23795114.6244
        16.7504         15.7504
 02  7 16 15 25 15.0030000  0  9G 6G10G15G17G18G22G23G26G29
  21448371.9294    4513614.51248   3517100.19447                  21448375.5154
        31.7504         29.2504
  25000637.7184    8339398.72945   6498227.71645                  25000644.0224
        10.7504          9.2504
  21988819.6874    1203916.86148    937877.58947                  21988824.4564
        28.2504         27.0004
  21707637.1084    2130432.37348   1660077.74147                  21707641.1874
        28.2504         27.2504
  22637037.9374    -626498.94247   -485745.06546                  22637041.8154
        26.5004         23.7504
  24053673.4914    1952841.69346    481506.36146                  24053678.4834
        15.5004         13.7504
  22103279.8514    5102684.04648   3951458.33147                  22103284.2924
        30.5004         29.5004
  23286622.2414     968070.29646    112252.59246                  23286627.3864
        17.0004         15.2504
  23800885.3124    2072013.73846    745987.94546                  23800890.3974
        17.0004         16.0004
 02  7 16 15 25 30.0030000  0  9G 6G10G15G17G18G22G23G26G29
  21458996.5624    4569446.37648   3560605.52947                  21459000.0774
        32.2504         29.2504
  25018228.7264    8431839.02445   6570259.05345                  25018235.8664
        11.0004          8.7504
  21992304.0624    1222227.92947    952145.95947                  21992309.0194
        27.7504         27.0004
  21712933.9604    2158267.47248   1681767.42947                  21712937.9914
        28.2504         27.2504
  22637100.0854    -626173.67347   -485491.58646                  22637103.7534
        27.0004         24.0004
  24059381.6404    1982833.79946    504876.83046                  24059386.6674
        15.7504         13.7504
  22115041.4684    5164490.89748   3999619.50547                  22115046.0384
        30.7504         29.2504
  23290260.9444     987191.80946    127152.50046                  23290266.1834
        17.2504         15.7504
  23806694.5154    2102539.63146    769774.36346                  23806698.9444
        18.0004         16.2504
 02  7 16 15 25 45.0030000  0  9G 6G10G15G17G18G22G23G26G29
  21469650.8194    4625436.21948   3604233.96047                  21469654.4054
        32.0004         29.5004
  25035831.7104    8524349.17345   6642344.84645                  25035838.1084
        10.5004          8.7504
  21995808.1944    1240640.98248    966493.79947                  21995813.0814
        28.5004         27.0004
  21718248.8744    2186198.90647   1703532.17847                  21718252.9174
        27.7504         27.5004
  22637187.3744    -625713.08947   -485132.66946                  22637191.0424
        26.5004         24.0004
  24065121.9294    2013008.80946    528389.82446                  24065126.9684
        14.7504         13.5004
  22126830.5624    5226442.51548   4047893.47847                  22126834.9794
        30.7504         29.2504
  23293934.4374    1006493.83346    142193.05346                  23293938.8194
        17.5004         15.7504
  23812536.1714    2133237.00446    793694.40446                  23812539.6514
        18.7504         16.5004
 02  7 16 15 26  0.0030000  0  9G 6G10G15G17G18G22G23G26G29
  21480335.1554    4681582.52948   3647984.31347                  21480338.7654
        32.2504         29.5004
  25053449.0774    8616927.39645   6714483.64145                  25053455.7454
        10.7504          8.7504
  21999331.3824    1259154.53848    980919.95847                  21999336.2334
        28.5004         27.0004
  21723581.4524    2214225.15547   1725370.81747                  21723586.1164
        26.7504         27.2504
  22637300.3434    -625118.43547   -484669.28646                  22637303.8944
        26.5004         24.2504
  24070899.2654    2043365.19846    552044.14546                  24070904.7144
        15.2504         13.5004
  22138646.8274    5288537.19648   4096278.93447                  22138651.1404
        31.2504         29.5004
  23297640.7334    1025975.23546    157373.38046                  23297645.7724
        16.5004         16.2504
  23818409.8354    2164104.60946    817747.10246                  23818413.2224
        18.2504         16.5004
 02  7 16 15 26 15.0030000  0  9G 6G10G15G17G18G22G23G26G29
  21491049.9294    4737888.98948   3691859.45747                  21491053.5974
        31.7504         29.2504
  25071079.2964    8709577.02645   6786678.12545                  25071085.7764
        10.2504          9.0004
  22002874.3194    1277772.18948    995427.22347                  22002878.9724
        29.0004         27.2504
  21728933.4054    2242349.88747   1747286.19247                  21728938.1164
        26.7504         27.0004
  22637440.2574    -624385.89647   -484098.45646                  22637443.8904
        27.2504         24.2504
  24076711.4994    2073906.71446    575842.72846                  24076716.5974
        15.2504         13.5004
  22150490.8044    5350778.33948   4144778.51447                  22150495.0694
        31.0004         29.5004
  23301383.6714    1045639.95146    172696.55046                  23301388.5584
        17.7504         16.0004
  23824316.4604    2195146.22746    841935.37846                  23824320.6554
        17.7504         16.5004
 02  7 16 15 26 30.0030000  0  9G 6G10G15G17G18G22G23G26G29
  21501795.2184    4794354.66148   3735858.67047                  21501798.6044
        32.0004         29.2504
  25088723.4054    8802296.82045   6858927.26245                  25088730.6284
        10.0004          9.0004
  22006436.8274    1296493.07248   1010014.92847                  22006441.3624
        28.7504         27.0004
  21734304.7574    2270572.15648   1769277.56947                  21734308.9524
        28.2504         27.7504
  22637605.2184    -623516.17547   -483420.73146                  22637608.8974
        26.5004         24.5004
  24082558.4764    2104632.51546    599784.91646                  24082563.1044
        15.2504         13.5004
  22162362.8744    5413164.77748   4193391.30947                  22162367.0114
        31.7504         29.5004
  23305160.5384    1065487.29046    188162.03146                  23305165.2024
        18.0004         16.7504
  23830256.1474    2226361.07246    866258.66146                  23830260.3544
        17.5004         16.2504
 02  7 16 15 26 45.0030000  0  9G 6G10G15G17G18G22G23G26G29
  21512570.3044    4850977.71548   3779980.51047                  21512573.8314
        32.5004         29.2504
  25106380.9374    8895084.84545   6931229.57145                  25106387.7104
        10.0004          8.7504
  22010018.3584    1315315.45648   1024681.72647                  22010023.0934
        28.7504         27.2504
  21739693.3974    2298890.08448   1791343.47747                  21739697.2064
        28.5004         28.0004
  22637796.9214    -622510.86347   -482637.35646                  22637800.3544
        27.2504         24.5004
  24088439.3354    2135540.77846    623869.26146                  24088445.0544
        14.7504         13.2504
  22174261.6714    5475694.43848   4242115.71547                  22174265.7144
        31.5004         29.2504
  23308972.0224    1085515.79846    203768.66746                  23308976.5694
        18.5004         16.2504
  23836229.0694    2257747.53146    890715.66246                  23836233.8514
        17.7504         16.7504
 02  7 16 15 27  0.0030000  0  9G 6G10G15G17G18G22G23G26G29
  21523375.3584    4907759.07448   3824225.70647                  21523378.8044
        32.0004         29.5004
  25124051.1084    8987941.65545   7003585.45145                  25124057.7884
        10.2504          9.0004
  22013619.5774    1334240.22448   1039428.30747                  22013624.4994
        28.2504         27.0004
  21745100.4134    2327304.76048   1813484.77947                  21745104.5734
        28.0004         27.7504
  22638014.0544    -621368.90547   -481747.49746                  22638017.5584
        27.5004         24.5004
  24094356.6164    2166632.37546    648096.48046                  24094361.8314
        15.2504         13.2504
  22186188.0774    5538368.02248   4290952.26547                  22186192.0624
        31.5004         29.2504
  23312817.3274    1105726.56846    219517.34546                  23312822.1904
        18.0004         16.0004
  23842235.1474    2289306.55546    915307.11446                  23842239.3434
        19.0004         16.7504
 02  7 16 15 27 15.0030000  0  9G 6G10G15G17G18G22G23G26G29
  21534211.7104    4964702.96948   3868597.55747                  21534215.2144
        32.5004         29.2504
  25141735.4054    9080871.21145   7075998.02745                  25141742.3584
        10.5004          9.0004
  22017241.0304    1353271.68648   1054258.02247                  22017245.9764
        28.5004         27.2504
  21750526.3194    2355820.31847   1835704.70447                  21750530.7964
        27.5004         27.5004
  22638258.0624    -620085.85547   -480747.70246                  22638261.7064
        27.2504         24.5004
  24100308.4604    2197911.60046    672469.89346                  24100313.4294
        15.0004         13.7504
  22198142.6014    5601189.45148   4339904.01647                  22198146.7374
        30.7504         29.0004
  23316698.6874    1126124.15646    235411.58846                  23316704.0074
        17.5004         16.0004
  23848274.5074    2321042.52846    940036.47246                  23848278.5974
        19.2504         17.0004
 02  7 16 15 27 30.0030000  0  9G 6G10G15G17G18G22G23G26G29
  21545077.5224    5021804.38248   3913092.14747                  21545081.1204
        32.2504         29.2504
  25159431.9914    9173868.04945   7148463.07145                  25159439.4834
        11.0004          9.7504
  22020881.9374    1372404.78548   1069166.94047                  22020886.7534
        28.5004         27.2504
  21755971.6874    2384431.60448   1857999.21347                  21755976.0114
        28.5004         27.7504
  22638528.4994    -618666.57847   -479641.74546                  22638531.9684
        27.7504         24.7504
  24106295.1794    2229373.48546    696985.64946                  24106301.0504
        14.7504         13.5004
  22210124.2264    5664153.44948   4388966.85847                  22210128.2924
        30.7504         28.7504
  23320615.7574    1146703.79246    251447.69246                  23320620.0464
        18.5004         16.5004
  23854345.8194    2352950.66146    964899.95146                  23854350.0034
        18.5004         17.0004
 02  7 16 15 27 45.0030000  0  9G 6G10G15G17G18G22G23G26G29
  21555973.1164    5079061.90048   3957708.38047                  21555976.6084
        31.7504         29.2504
  25177141.5464    9266930.48145   7220979.23145                  25177150.3514
        11.5004         10.0004
  22024542.2264    1391638.04948   1084153.90247                  22024546.9954
        28.7504         27.2504
  21761434.0464    2413137.29048   1880367.27947                  21761438.1834
        28.7504         28.0004
  22638823.9294    -617112.38847   -478430.67246                  22638827.4684
        27.0004         24.7504
  24112316.7264    2261016.55046    721642.56946                  24112322.2224
        14.5004         13.2504
  22222132.5854    5727258.37148   4438139.51547                  22222136.7454
        30.5004         28.7504
  23324566.2414    1167464.39946    267624.79946                  23324570.6474
        18.2504         16.5004
  23860449.9294    2385029.52546    989896.47946                  23860454.3824
        17.7504         17.0004
 02  7 16 15 28  0.0030000  0  9G 6G10G15G17G18G22G23G26G29
  21566898.6164    5136475.68748   4002446.38447                  21566902.2964
        31.7504         29.2504
  25194862.3124    9360058.44145   7293546.41545                  25194869.2294
        10.5004          9.2504
  22028221.2334    1410971.60148   1099219.01847                  22028225.8394
        29.5004         27.5004
  21766914.1164    2441937.61548   1902809.08847                  21766918.4994
        28.0004         27.5004
  22639145.5464    -615422.86447   -477114.14146                  22639149.0264
        27.7504         25.0004
  24118373.1404    2292840.97046    746440.80546                  24118378.5774
        14.7504         13.2504
  22234168.1084    5790504.12148   4487421.90947                  22234172.3274
        30.7504         28.2504
  23328550.7574    1188406.30946    283943.18046                  23328555.3624
        17.7504         16.2504
  23866586.7964    2417279.53746   1015026.38746                  23866591.8004
        17.7504         16.7504
 02  7 16 15 28 15.0030000  0  9G 6G10G15G17G18G22G23G26G29
  21577853.9684    5194047.44348   4047307.47947                  21577857.5894
        31.5004         29.0004
  25212597.1404    9453253.45945   7366165.86045                  25212604.7724
        10.5004          9.2504
  22031919.9764    1430407.25348   1114363.69147                  22031924.3474
        30.0004         27.5004
  21772412.9764    2470834.09848   1925325.82247                  21772417.2884
        28.0004         27.7504
  22639493.0154    -613595.99547   -475690.58946                  22639496.5654
        27.5004         25.0004
  24124463.3744    2324848.50646    771381.73546                  24124468.5654
        14.0004         13.5004
  22246230.2104    5853892.14748   4536815.16347                  22246234.3124
        30.5004         28.5004
  23332570.8434    1209531.54646    300404.43146                  23332575.5544
        18.0004         16.2504
  23872756.9214    2449702.52046   1040291.06446                  23872761.8194
        18.0004         16.2504
 02  7 16 15 28 30.0030000  0  9G 6G10G15G17G18G22G23G26G29
  21588839.4444    5251774.80948   4092289.82647                  21588843.1244
        32.0004         28.7504
  25230344.2964    9546512.69645   7438835.32745                  25230350.6364
        11.2504          8.7504
  22035636.9834    1449942.56048   1129586.01447                  22035641.4374
        29.5004         27.2504
  21777929.7804    2499824.46748   1947915.71647                  21777934.0814
        28.7504         27.2504
  22639866.3664    -611634.16247   -474161.87146                  22639869.9054
        27.7504         24.7504
  24130588.9214    2357036.80446    796463.51946                  24130594.8394
        14.7504         13.0004
  22258319.2414    5917419.84248   4586317.24747                  22258323.4014
        30.7504         28.2504
  23336625.9294    1230838.00546    317006.86746                  23336630.2764
        19.2504         16.2504
  23878959.4914    2482296.07746   1065688.64846                  23878963.4054
        18.7504         16.5004
 02  7 16 15 28 45.0030000  0 10G21G 6G10G15G17G18G22G23G26G29
  25252586.3974       -832.12255
         9.7504
  21599854.1474    5309657.59848   4137393.27647                  21599857.8744
        31.5004         29.0004
  25248102.6084    9639835.66445   7511554.50645                  25248109.7024
        10.5004          9.5004
  22039373.3514    1469577.41248   1144885.89947                  22039378.0624
        28.7504         27.0004
  21783464.5624    2528908.56248   1970578.64947                  21783468.6284
        29.0004         27.7504
  22640265.7414    -609537.25748   -472527.89746                  22640269.2224
        28.2504         25.2504
  24136748.8824    2389405.73946    821686.06446                  24136754.1794
        14.7504         13.5004
  22270434.5694    5981086.85348   4635927.89647                  22270438.5774
        30.7504         28.5004
  23340714.6084    1252325.76946    333750.60846                  23340718.8974
        18.7504         16.5004
  23885194.3434    2515060.34846   1091219.24546                  23885198.3864
        18.5004         16.2504
 02  7 16 15 29  0.0030000  0 10G21G 6G10G15G17G18G22G23G26G29
  25251408.4684      -7024.89845
         9.5004
  21610898.5544    5367696.51648   4182618.39947                  21610902.2334
        31.7504         29.2504
  25265873.8434    9733222.76345   7584323.58345                  25265881.8154
        11.2504          9.7504
  22043128.7024    1489312.58148   1160263.96047                  22043133.3784
        28.5004         27.0004
  21789016.8354    2558087.06048   1993315.14247                  21789020.8434
        28.7504         28.0004
  22640690.4834    -607304.35247   -470787.95446                  22640693.9524
        27.7504         25.2504
  24142942.4764    2421956.10746    847049.96746                  24142947.4334
        14.7504         13.5004
  22282576.6014    6044893.64548   4685647.45947                  22282580.7264
        30.7504         28.5004
  23344838.1554    1273995.96346    350636.48446                  23344842.2694
        18.5004         16.7504
  23891461.3974    2547996.20146   1116883.55946                  23891465.8154
        18.0004         16.5004
 02  7 16 15 29 15.0030000  0 10G21G 6G10G15G17G18G22G23G26G29
  25250245.6944     -13131.53345
         9.0004
  21621973.2884    5425895.15848   4227967.97247                  21621976.8394
        31.5004         29.2504
  25283657.4524    9826677.36045   7657145.34545                  25283664.2374
        11.0004          9.2504
  22046903.9134    1509151.72348   1175723.02947                  22046908.8234
        28.7504         27.0004
  21794588.0854    2587363.57648   2016128.01147                  21794592.1164
        29.2504         28.0004
  22641141.9994    -604931.74448   -468939.14946                  22641145.5264
        28.0004         25.2504
  24149171.9914    2454691.41946    872557.99146                  24149177.5224
        14.7504         13.5004
  22294746.0544    6108843.51248   4735478.51747                  22294749.9444
        30.7504         28.5004
  23348997.2804    1295852.28446    367667.39946                  23349001.6044
        18.5004         16.7504
  23897762.6794    2581107.35446   1142684.47146                  23897767.1794
        18.0004         16.2504
 02  7 16 15 29 30.0030000  0 10G21G 6G10G15G17G18G22G23G26G29
  25249098.2104     -19156.84345
         8.7504
  21633077.6714    5484248.27648   4273437.91347                  21633081.2694
        31.7504         29.2504
  25301453.4054    9920193.98445   7730015.38545                  25301460.7694
        11.0004          9.5004
  22050698.1474    1529089.57948   1191259.02547                  22050702.9994
        28.7504         27.2504
  21800176.5464    2616732.81548   2039013.12947                  21800180.7064
        28.7504         28.0004
  22641618.7964    -602424.42647   -466985.36846                  22641622.3004
        27.5004         25.2504
  24155436.1794    2487606.49146    898206.09846                  24155441.5114
        15.2504         13.0004
  22306941.3354    6172930.97248   4785416.78247                  22306945.2144
        30.5004         28.5004
  23353190.3664    1317889.83346    384839.52946                  23353195.1714
        18.5004         16.5004
  23904096.3124    2614388.71546   1168618.01046                  23904100.5544
        19.2504         16.7504
 02  7 16 15 29 45.0030000  0 10G21G 6G10G15G17G18G22G23G26G29
  25247967.3434     -25099.42545      -921.91355                  25247975.9954
         8.2504          8.7504
  21644211.5074    5542757.25048   4319029.30247                  21644215.1634
        31.7504         29.2504
  25319261.4684   10013773.68245   7802934.56945                  25319268.0894
        11.7504          9.0004
  22054511.6324    1549127.55148   1206873.03647                  22054516.2024
        29.7504         27.5004
  21805783.3584    2646196.22448   2061971.63147                  21805787.6124
        28.2504         27.7504
  22642121.9914    -599780.90447   -464925.46746                  22642125.6244
        27.0004         25.5004
  24161733.1324    2520702.73446    923995.35946                  24161738.7694
        14.2504         13.2504
  22319163.2804    6237157.10348   4835463.10547                  22319167.2184
        31.0004         28.5004
  23357419.5544    1340110.28146    402154.18546                  23357424.6164
        19.0004         16.5004
  23910461.9684    2647841.74946   1194685.30746                  23910466.0464
        18.5004         16.7504
 02  7 16 15 30  0.0030000  0 10G21G 6G10G15G17G18G22G23G26G29
  25246852.9294     -30959.99645     -5488.55945                  25246860.6904
         8.2504          9.5004
  21655375.0694    5601421.13148   4364741.39847                  21655378.8084
        31.5004         29.2504
  25337080.7334   10107415.21645   7875901.94745                  25337086.8624
        11.5004         10.0004
  22058343.3584    1569264.65248   1222564.28947                  22058347.6124
        29.7504         27.5004
  21811407.6634    2675752.92948   2085002.82547                  21811411.7534
        28.2504         27.7504
  22642650.8044    -597001.81647   -462759.92046                  22642654.5424
        27.5004         25.2504
  24168066.2494    2553979.21446    949925.07146                  24168072.0974
        14.5004         13.0004
  22331411.0624    6301520.72048   4885616.56647                  22331415.0224
        30.5004         28.5004
  23361682.6474    1362512.92746    419610.80946                  23361686.8784
        19.5004         16.7504
  23916859.4054    2681465.71946   1220885.80746                  23916864.0224
        17.2504         16.2504
 02  7 16 15 30 15.0030000  0 10G21G 6G10G15G17G18G22G23G26G29
  25245753.6794     -36739.10245     -9991.71045                  25245762.0734
         9.0004          9.2504
  21666567.6244    5660239.25748   4410573.68447                  21666571.3044
        31.7504         29.0004
  25354911.3584   10201117.70045   7948916.81445                  25354917.8974
        11.2504         10.2504
  22062194.2184    1589500.23148   1238332.27747                  22062198.6014
        29.7504         27.2504
  21817049.9914    2705402.13648   2108106.10847                  21817053.9054
        29.0004         28.0004
  22643204.8974    -594087.69547   -460489.15446                  22643208.6944
        27.0004         25.5004
  24174432.3274    2587435.29346    975994.74646                  24174438.7024
        14.5004         13.7504
  22343685.0694    6366021.01148   4935876.51647                  22343689.2414
        30.2504         28.5004
  23365980.7724    1385097.36647    437209.08546                  23365984.5694
        20.5004         17.2504
  23923289.8434    2715259.96646   1247219.00146                  23923295.0464
        16.7504         16.0004
 02  7 16 15 30 30.0030000  0 10G21G 6G10G15G17G18G22G23G26G29
  25244670.1794     -42434.38445    -14429.56545                  25244677.9874
         9.5004          9.7504
  21677790.0544    5719213.72048   4456527.79147                  21677793.6284
        31.5004         29.0004
  25372754.5854   10294882.79745   8021980.47845                  25372762.6514
        11.2504         10.0004
  22066063.5934    1609836.38548   1254178.63547                  22066068.1984
        29.0004         27.2504
  21822709.9834    2735146.00648   2131283.14947                  21822713.8154
        29.0004         28.2504
  22643785.6944    -591036.33747   -458111.45146                  22643789.5154
        27.0004         25.5004
  24180832.9054    2621072.96646   1002205.90246                  24180839.8004
        14.0004         13.5004
  22355985.7024    6430659.78848   4986244.37847                  22355989.7104
        31.5004         28.7504
  23370312.8584    1407865.92546    454950.82746                  23370316.6794
        19.7504         17.2504
  23929753.6474    2749226.72646   1273686.63546                  23929759.1794
        17.0004         16.0004
 02  7 16 15 30 45.0030000  0 10G21G 6G10G15G17G18G22G23G26G29
  25243602.0384     -48047.21845    -18803.16445                  25243609.4724
         9.5004         10.0004
  21689042.0624    5778343.15148   4502602.65647                  21689045.6014
        31.5004         29.0004
  25390609.4374   10388708.87345   8095091.65345                  25390617.4564
        11.5004          9.5004
  22069952.2494    1630271.74148   1270102.29547                  22069956.9014
        29.0004         27.2504
  21828388.0624    2764982.97848   2154532.73847                  21828391.9294
        28.7504         27.7504
  22644392.4764    -587848.92847   -455627.74046                  22644396.1794
        27.2504         25.5004
  24187269.3434    2654890.90046   1028557.51946                  24187275.6124
        14.5004         13.2504
  22368312.0384    6495435.38848   5036718.86147                  22368316.1874
        31.2504         29.0004
  23374680.9524    1430817.52547    472835.21946                  23374685.1364
        20.2504         17.2504
  23936250.5624    2783364.87546   1300287.78346                  23936255.1554
        18.0004         16.2504
 02  7 16 15 31  0.0030000  0 10G21G 6G10G15G17G18G22G23G26G29
  25242549.0774     -53575.94545    -23111.23145                  25242557.1674
         9.2504         10.5004
  21700323.4444    5837628.87148   4548799.30247                  21700327.1714
        31.0004         29.0004
  25408475.3584   10482597.04945   8168251.22345                  25408483.6014
        11.5004          9.7504
  22073860.3824    1650807.76048   1286104.39447                  22073864.9644
        29.0004         27.5004
  21834083.4604    2794914.71748   2177856.16947                  21834087.5264
        28.5004         28.0004
  22645024.9444    -584523.81947   -453036.72347                  22645028.6244
        27.0004         25.7504
  24193738.9994    2688890.46546   1055050.68746                  24193745.0464
        14.7504         13.2504
  22380664.7654    6560348.92548   5087300.82747                  22380668.6444
        31.7504         29.5004
  23379082.7884    1453953.73846    490863.45146                  23379086.7494
        19.5004         17.0004
  23942780.1794    2817675.83946   1327023.60646                  23942784.2694
        18.2504         16.2504
 02  7 16 15 31 15.0030000  0  9G21G 6G15G17G18G22G23G26G29
  25241512.6014     -59022.91745    -27355.58645                  25241518.8584
         9.7504         10.0004
  21711634.6244    5897068.30948   4595115.73247                  21711638.2924
        31.2504         29.0004
  22077787.1874    1671441.90948   1302182.95547                  22077791.9564
        29.7504         27.5004
  21839797.1164    2824938.41548   2201251.25547                  21839801.3004
        28.7504         27.5004
  22645683.3194    -581063.39547   -450340.27146                  22645687.1404
        27.0004         25.5004
  24200243.2884    2723069.18346   1081683.44446                  24200248.3864
        15.0004         13.2504
  22393043.3194    6625397.59948   5137988.09147                  22393047.2694
        32.2504         29.5004
  23383520.7494    1477272.33447    509033.80046                  23383524.9094
        20.0004         17.0004
  23949341.3044    2852157.16046   1353892.17846                  23949345.2184
        17.5004         16.5004
 02  7 16 15 31 30.0030000  0  9G21G 6G15G17G18G22G23G26G29
  25240492.1404     -64387.26145    -31535.57345                  25240499.3394
        10.7504          9.7504
  21722975.1794    5956662.23348   4641552.53447                  21722979.0224
        31.5004         29.0004
  22081732.4134    1692174.97548   1318338.59347                  22081736.9484
        29.7504         27.7504
  21845527.7494    2855055.04748   2224718.76347                  21845532.0854
        28.2504         27.7504
  22646367.9834    -577466.76447   -447537.67846                  22646371.7104
        27.2504         25.2504
  24206781.7334    2757427.82146   1108456.39146                  24206787.0074
        15.0004         13.2504
  22405447.3514    6690581.94948   5188781.08047                  22405451.1714
        32.0004         29.7504
  23387993.0074    1500774.29947    527347.03646                  23387997.1554
        20.2504         17.5004
  23955935.3434    2886809.77046   1380894.21446                  23955939.8784
        17.2504         16.0004
 02  7 16 15 31 45.0030000  0  9G21G 6G15G17G18G22G23G26G29
  25239487.2264     -69668.61945    -35650.90845                  25239493.9054
        10.5004         10.7504
  21734344.7964    6016410.78748   4688109.83247                  21734348.4764
        31.0004         29.0004
  22085696.4834    1713007.11648   1334571.43847                  22085700.9954
        29.5004         27.7504
  21851276.7494    2885264.66448   2248258.73147                  21851281.0034
        28.2504         27.7504
  22647078.2884    -573733.55747   -444628.66047                  22647082.0034
        27.5004         25.7504
  24213353.8744    2791966.48646   1135369.62646                  24213359.8044
        14.2504         13.2504
  22417877.3514    6755901.90648   5239679.73647                  22417881.3004
        32.5004         30.0004
  23392500.3664    1524460.12247    545803.52646                  23392503.9294
        20.5004         17.7504
  23962562.5694    2921633.85846   1408029.87946                  23962566.8234
        17.7504         16.2504
 02  7 16 15 32  0.0030000  0  9G21G 6G15G17G18G22G23G26G29
  25238498.9994     -74864.92945    -39699.93045                  25238504.4834
        11.0004         10.5004
  21745744.2654    6076315.68548   4734788.95247                  21745747.9444
        31.2504         29.0004
  22089679.8904    1733940.07248   1350882.83347                  22089684.5194
        29.5004         27.7504
  21857043.2184    2915568.92948   2271872.43747                  21857047.2144
        28.5004         27.7504
  22647815.0304    -569861.88047   -441611.75546                  22647818.6984
        27.2504         25.5004
  24219960.2654    2826686.96546   1162424.53946                  24219966.6284
        14.2504         13.0004
  22430333.6944    6821358.92248   5290685.18647                  22430337.6444
        33.0004         30.0004
  23397042.8974    1548331.72647    564404.79346                  23397046.9294
        20.2504         17.5004
  23969222.2724    2956631.41546   1435300.70646                  23969226.1874
        17.5004         16.2504
 02  7 16 15 32 15.0030000  0  9G21G 6G15G17G18G22G23G26G29
  25237525.0304     -79978.99345    -43684.87045                  25237531.5694
        11.0004         11.0004
  21757172.9134    6136373.88248   4781587.52347                  21757176.7224
        31.0004         29.0004
  22093681.5694    1754970.83048   1367270.44447                  22093686.1874
        28.7504         27.5004
  21862827.6794    2945964.95248   2295557.64947                  21862831.8514
        28.5004         27.7504
  22648577.9604    -565854.64048   -438489.20947                  22648581.6984
        28.0004         25.7504
  24226601.6554    2861586.19346   1189618.74046                  24226607.2224
        14.0004         12.7504
  22442814.9994    6886949.71048   5341794.87647                  22442818.9254
        32.5004         30.0004
  23401619.9684    1572386.39747    583148.71046                  23401624.3274
        20.0004         17.5004
  23975914.2264    2991799.48846   1462704.39246                  23975918.4334
        17.5004         16.2504
 02  7 16 15 32 30.0030000  0  9G21G 6G15G17G18G22G23G26G29
  25236567.7964     -85012.24945    -47606.86145                  25236575.0424
        11.5004         11.0004
  21768630.8824    6196583.89048   4828504.39447                  21768634.7844
        31.2504         28.7504
  22097702.3904    1776098.02848   1383733.19647                  22097707.1364
        29.2504         27.7504
  21868628.9214    2976451.25548   2319313.21247                  21868633.0694
        28.5004         27.7504
  22649365.5384    -561713.08847   -435262.00347                  22649368.9374
        27.5004         26.0004
  24233276.0464    2896662.68846   1216951.06546                  24233282.5624
        14.0004         13.2504
  22455321.9684    6952672.54848   5393007.46447                  22455325.9174
        33.2504         30.2504
  23406232.6084    1596622.78047    602034.21946                  23406236.7924
        20.5004         17.5004
  23982638.5224    3027136.73946   1490239.91446                  23982643.3154
        16.7504         16.0004
 02  7 16 15 32 45.0030000  0  9G21G 6G15G17G18G22G23G26G29
  25235625.6554     -89962.08345    -51463.85645                  25235632.6084
        11.5004         10.7504
  21780117.8434    6256948.37648   4875541.63547                  21780121.5344
        31.2504         29.0004
  22101741.6794    1797324.26848   1400273.12347                  22101746.5424
        29.5004         27.7504
  21874447.4914    3007030.37847   2343141.09947                  21874451.8394
        27.7504         27.5004
  22650180.1714    -557434.37848   -431927.92747                  22650183.6754
        28.0004         25.7504
  24239985.3744    2931919.12846   1244423.57946                  24239991.3394
        14.0004         13.2504
  22467853.8434    7018529.78548   5444324.77747                  22467857.7104
        33.2504         30.5004
  23410879.6874    1621043.92347    621063.69346                  23410883.6014
        21.2504         18.2504
  23989395.5384    3062645.88946   1517909.38846                  23989399.8744
        17.0004         15.7504
 02  7 16 15 33  0.0030000  0  9G21G 6G15G17G18G22G23G26G29
  25234699.7264     -94829.51345    -55256.64945                  25234707.1834
        11.5004         11.2504
  21791634.1164    6317466.05748   4922698.25247                  21791637.7844
        31.5004         29.0004
  22105799.4524    1818648.33548   1416889.28547                  22105804.3624
        29.5004         27.7504
  21880284.3274    3037701.22148   2367040.45747                  21880288.6984
        28.0004         27.7504
  22651020.3274    -553019.53948   -428487.76747                  22651023.8314
        28.2504         25.7504
  24246728.1874    2967354.23446   1272035.34146                  24246734.4214
        13.5004         12.7504
  22480411.5624    7084519.95748   5495745.67747                  22480415.3704
        33.5004         30.5004
  23415561.5224    1645648.84847    640236.37246                  23415565.8944
        20.5004         17.7504
  23996185.5384    3098325.87946   1545711.98246                  23996189.9684
        17.2504         16.2504
 02  7 16 15 33 15.0040000  0  9G21G 6G15G17G18G22G23G26G29
  25233788.9104     -99612.01645    -58983.22045                  25233797.0004
        11.0004         11.5004
  21803180.5514    6378143.52648   4969979.37147                  21803184.2664
        31.2504         28.7504
  22109876.5274    1840074.20248   1433584.77147                  22109881.2384
        29.5004         27.7504
  21886139.5194    3068468.30348   2391014.80647                  21886143.7034
        28.7504         27.7504
  22651886.6844    -548465.54248   -424939.17347                  22651890.2694
        28.0004         25.7504
  24253506.3014    3002972.96946   1299790.20446                  24253512.2424
        14.0004         13.0004
  22492995.7624    7150649.74548   5547275.37147                  22492999.6174
        33.5004         30.7504
  23420279.1444    1670441.85446    659555.60446                  23420283.5274
        19.7504         17.7504
  24003009.3484    3134181.68046   1573651.56946                  24003013.3094
        18.2504         16.2504
 02  7 16 15 33 30.0040000  0  9G21G 6G15G17G18G22G23G26G29
  25232895.1444    -104308.94745    -62643.12245                  25232902.7894
        10.7504         11.5004
  21814755.8714    6438972.37648   5017378.45847                  21814759.5044
        30.7504         28.7504
  22113972.6214    1861598.77848   1450357.17147                  22113977.4614
        29.5004         27.7504
  21892010.9574    3099327.30148   2415060.78247                  21892014.9884
        28.2504         27.7504
  22652779.9654    -543773.19148   -421282.77946                  22652783.5514
        28.0004         25.5004
  24260318.5984    3038770.26846   1327684.17246                  24260324.0354
        14.0004         12.5004
  22505604.3714    7216909.85548   5598906.61247                  22505608.1684
        33.2504         30.7504
  23425032.8714    1695419.63847    679018.82146                  23425037.6644
        20.2504         17.7504
  24009864.5664    3170208.42546   1601724.34546                  24009867.9184
        17.7504         16.2504
 02  7 16 15 33 45.0040000  0  9G21G 6G15G17G18G22G23G26G29
  25232017.9654    -108921.99545    -66237.68845                  25232025.2934
        11.0004         10.7504
  21826360.5044    6499955.30748   5064897.60647                  21826364.2894
        31.2504         28.5004
  22118087.0044    1883222.14848   1467206.56047                  22118091.7624
        29.0004         27.5004
  21897901.4494    3130278.87048   2439178.89147                  21897905.4224
        28.5004         27.5004
  22653698.6604    -538943.37048   -417519.25447                  22653702.0944
        28.2504         25.7504
  24267165.2154    3074747.19646   1355718.13646                  24267171.3204
        14.2504         12.7504
  22518238.7464    7283303.08648   5650641.57847                  22518242.5904
        33.2504         30.5004
  23429821.1764    1720582.86447    698626.53746                  23429825.6174
        20.2504         17.5004
  24016752.7544    3206407.15446   1629931.14746                  24016756.7974
        17.2504         16.0004
 02  7 16 15 34  0.0040000  0  9G21G 6G15G17G18G22G23G26G29
  25231155.5904    -113448.48745    -69764.81245                  25231161.8834
        10.2504         10.0004
  21837994.8164    6561094.52848   5112538.53447                  21837998.6134
        31.0004         29.0004
  22122221.0514    1904946.60848   1484134.71447                  22122225.9494
        29.2504         27.7504
  21903809.4184    3161325.22948   2463370.86147                  21903813.3324
        28.5004         27.7504
  22654644.1914    -533973.58347   -413646.67447                  22654647.6134
        27.5004         26.0004
  24274045.8874    3110905.95246   1383893.77246                  24274051.9574
        14.0004         13.0004
  22530898.7854    7349831.39048   5702481.80447                  22530902.7114
        33.2504         30.7504
  23434645.3484    1745933.93247    718380.62946                  23434649.7074
        21.0004         17.7504
  24023674.5434    3242780.32846   1658273.87546                  24023679.0784
        17.2504         16.2504
 02  7 16 15 34 15.0040000  0  9G21G 6G15G17G18G22G23G26G29
  25230310.0124    -117890.68945    -73226.22045                  25230316.6804
         9.5004         10.2504
  21849658.3794    6622387.68948   5160299.42347                  21849661.9884
        31.0004         28.7504
  22126374.1374    1926769.82248   1501139.82047                  22126379.1524
        29.5004         27.7504
  21909734.9804    3192463.95048   2487634.80547                  21909738.9774
        28.5004         27.5004
  22655616.4804    -528866.01648   -409666.72847                  22655620.0434
        28.2504         26.0004
  24280960.5274    3147244.14846   1412209.24646                  24280966.1174
        13.7504         12.7504
  22543583.9024    7416492.23548   5754425.30647                  22543588.0624
        33.5004         30.5004
  23439504.9414    1771470.77047    738279.46246                  23439508.9614
        20.5004         18.0004
  24030628.1444    3279325.66546   1686750.76446                  24030633.2894
        16.2504         16.0004
 02  7 16 15 34 30.0040000  0  9G21G 6G15G17G18G22G23G26G29
  25229481.0664    -122248.83745    -76622.13845                  25229487.8284
        10.0004         10.2504
  21861351.4024    6683834.24748   5208179.83447                  21861355.0474
        31.2504         29.0004
  22130545.6374    1948691.26748   1518221.47247                  22130550.3124
        29.5004         28.0004
  21915677.7154    3223694.82048   2511970.54647                  21915681.8634
        28.0004         27.7504
  22656614.3014    -523621.00847   -405579.68347                  22656617.8404
        27.5004         26.0004
  24287909.4804    3183761.34946   1440664.19346                  24287915.8794
        13.5004         13.5004
  22556293.7624    7483284.82048   5806471.46247                  22556297.9104
        32.5004         30.7504
  23444399.2694    1797193.06547    758322.82146                  23444403.3944
        20.2504         18.2504
  24037615.4264    3316042.78146   1715361.49746                  24037620.8054
        16.2504         16.0004
 02  7 16 15 34 45.0040000  0  9G21G 6G15G17G18G22G23G26G29
  25228667.5984    -126523.02145    -79952.64845                  25228676.0864
         9.7504         10.2504
  21873073.4024    6745433.89848   5256179.54547                  21873076.9534
        30.7504         28.7504
  22134736.0274    1970710.76948   1535379.52847                  22134740.5514
        29.7504         28.0004
  21921638.1914    3255017.42048   2536377.76447                  21921642.4804
        28.0004         27.5004
  22657638.3094    -518238.63847   -401385.60347                  22657641.7894
        27.5004         26.0004
  24294892.0124    3220457.18146   1469258.35146                  24294898.7384
        13.2504         13.5004
  22569029.3484    7550208.57448   5858619.82547                  22569033.6134
        33.2504         30.7504
  23449329.3164    1823100.80646    778510.68546                  23449333.4884
        19.5004         17.7504
  24044635.1524    3352931.60746   1744106.03246                  24044640.4374
        17.2504         16.5004
 02  7 16 15 35  0.0040000  0  9G21G 6G15G17G18G22G23G26G29
  25227869.6604    -130713.22545    -83217.72345                  25227878.3834
         9.2504         10.0004
  21884824.8554    6807186.42648   5304298.37647                  21884828.3484
        31.7504         29.0004
  22138944.8484    1992828.07248   1552613.79947                  22138949.3014
        30.2504         28.2504
  21927615.9804    3286431.39147   2560856.18847                  21927620.1874
        27.7504         27.2504
  22658688.7234    -512718.97547   -397084.54547                  22658692.1444
        27.7504         26.0004
  24301908.5904    3257331.38046   1497991.48946                  24301914.8364
        13.0004         13.2504
  22581789.0664    7617263.11348   5910870.10147                  22581793.3094
        33.0004         31.0004
  23454294.4734    1849194.02747    798843.05846                  23454298.6334
        20.0004         17.7504
  24051688.3404    3389991.86946   1772984.14346                  24051693.1444
        17.7504         16.5004
 02  7 16 15 35 15.0040000  0  9G21G 6G15G17G18G22G23G26G29
  25227089.0514    -134817.86245    -86416.08345                  25227096.5664
         9.2504         10.5004
  21896605.4344    6869093.43748   5352537.58447                  21896608.9614
        31.2504         28.7504
  22143172.3794    2015044.82148   1569925.56147                  22143176.9494
        30.0004         28.0004
  21933611.5514    3317938.62848   2585407.28647                  21933615.6524
        28.0004         27.2504
  22659765.4654    -507060.20347   -392675.08647                  22659769.0164
        27.2504         26.2504
  24308959.9264    3294385.69446   1526864.96446                  24308966.4064
        13.5004         13.2504
  22594574.3554    7684449.89448   5963223.42647                  22594578.6564
        33.0004         30.7504
  23459296.0984    1875474.65746    819321.48346                  23459300.5394
        19.7504         18.2504
  24058773.3714    3427225.49746   1801997.36546                  24058777.3674
        17.7504         16.7504
 02  7 16 15 35 30.0040000  0  9G21G 6G15G17G18G22G23G26G29
  25226323.9964    -138837.37245    -89548.14845                  25226330.1484
         9.7504         10.2504
  21908415.0744    6931154.28548   5400896.67147                  21908418.5194
        31.2504         28.7504
  22147418.7854    2037360.48848   1587314.40047                  22147423.3324
        30.0004         28.2504
  21939625.0434    3349538.50448   2610030.56847                  21939629.0044
        28.2504         27.5004
  22660868.8324    -501262.79547   -388157.60547                  22660872.5594
        27.2504         25.7504
  24316045.8794    3331619.41446   1555878.24646                  24316052.1374
        13.7504         13.5004
  22607384.6764    7751767.95248   6015679.04047                  22607388.7194
        33.0004         31.0004
  23464332.8484    1901942.36347    839945.65746                  23464337.0904
        20.5004         18.5004
  24065891.0824    3464631.83546   1831145.14446                  24065895.0904
        17.5004         16.5004
 02  7 16 15 35 45.0040000  0  9G21G 6G15G17G18G22G23G26G29
  25225576.0044    -142769.15445    -92611.83045                  25225583.4024
         9.5004          9.7504
  21920254.7304    6993371.49848   5449377.59747                  21920258.2114
        31.7504         29.0004
  22151684.6914    2059777.70348   1604782.36847                  22151689.2384
        30.2504         28.2504
  21945656.1844    3381233.50148   2634727.96747                  21945660.2624
        28.0004         27.5004
  22661998.9024    -495323.92947   -383529.88847                  22662002.4774
        27.7504         26.0004
  24323165.8554    3369035.13846   1585033.33546                  24323170.8714
        14.2504         13.5004
  22620220.2074    7819219.61248   6068238.76247                  22620224.4844
        32.2504         30.5004
  23469404.6054    1928599.79946    860717.69246                  23469409.5744
        19.0004         17.7504
  24073042.8014    3502213.65646   1860429.65746                  24073047.5594
        18.0004         16.2504
 02  7 16 15 36  0.0040000  0  9G21G 6G15G17G18G22G23G26G29
  25224844.4734    -146613.52745    -95607.40245                  25224851.1994
        10.0004          9.7504
  21932123.7464    7055744.20748   5497979.69047                  21932127.2974
        31.2504         28.7504
  22155969.8014    2082295.56448   1622328.75347                  22155974.3944
        30.2504         28.2504
  21951705.4184    3413022.82947   2659498.87147                  21951709.7424
        27.7504         27.5004
  22663155.6914    -489244.43947   -378792.60047                  22663159.1374
        27.7504         26.0004
  24330320.1134    3406632.04546   1614329.61446                  24330325.8674
        14.0004         13.0004
  22633081.0354    7886803.72948   6120901.69947                  22633085.2544
        32.0004         30.5004
  23474514.2304    1955446.37847    881637.11746                  23474519.3634
        20.2504         18.0004
  24080227.4964    3539970.08146   1889850.25546                  24080231.5044
        17.5004         16.5004
 02  7 16 15 36 15.0040000  0  9G21G 6G15G17G18G22G23G26G29
  25224129.3014    -150373.78245    -98537.46945                  25224136.1334
         9.7504         10.5004
  21944022.0594    7118269.06148   5546700.33547                  21944025.6334
        31.5004         28.7504
  22160273.3944    2104910.70948   1639950.95347                  22160278.0234
        30.5004         28.2504
  21957771.8874    3444903.10947   2684340.65347                  21957776.2934
        27.2504         27.2504
  22664338.7624    -483027.38547   -373948.11647                  22664342.1484
        27.7504         26.2504
  24337509.4024    3444406.62546   1643764.34446                  24337515.1564
        14.5004         12.7504
  22645966.6134    7954516.72648   6173665.05647                  22645970.7854
        32.5004         30.2504
  23479658.4344    1982479.02947    902701.52946                  23479662.6874
        20.0004         18.0004
  24087444.4654    3577897.99446   1919404.45846                  24087449.3874
        16.5004         16.2504
 02  7 16 15 36 30.0040000  0  9G21G 6G15G17G18G22G23G26G29
  25223428.7544    -154049.06445   -101401.27845                  25223436.6214
         9.5004          9.7504
  21955948.8484    7180946.55548   5595539.92347                  21955952.4694
        30.7504         29.0004
  22164595.5044    2127623.68148   1657649.37747                  22164600.1804
        30.0004         28.2504
  21963855.8554    3476874.85947   2709253.70447                  21963860.3324
        27.7504         27.2504
  22665548.1054    -476672.04447   -368995.87947                  22665551.6684
        27.2504         26.2504
  24344731.4184    3482359.39146   1673337.91046                  24344737.4184
        14.5004         13.2504
  22658876.1524    8022358.87948   6226529.05947                  22658880.4774
        31.7504         30.2504
  23484838.1844    2009698.48547    923911.48246                  23484842.4964
        20.0004         18.2504
  24094694.8874    3615997.95646   1949092.71946                  24094700.2304
        17.0004         16.2504
 02  7 16 15 36 45.0040000  0  9G21G 6G15G17G18G22G23G26G29
  25222746.4414    -157638.59445   -104198.27845                  25222751.9024
        10.5004         10.2504
  21967905.1844    7243777.20548   5644498.85347                  21967908.8524
        31.0004         29.0004
  22168936.3874    2150435.10948   1675424.52347                  22168940.9924
        30.7504         28.2504
  21969957.7234    3508938.62748   2734238.45847                  21969962.1054
        28.0004         27.5004
  22666784.0594    -470177.72547   -363935.34547                  22666787.5984
        27.5004         26.5004
  24351986.5124    3520491.01046   1703050.84346                  24351992.6414
        13.7504         13.5004
  22671810.7234    8090330.49648   6279493.94147                  22671815.2234
        31.2504         30.0004
  23490052.7934    2037105.55146    945267.64246                  23490057.6094
        19.5004         18.0004
  24101978.6054    3654270.56546   1978915.54746                  24101983.4344
        18.0004         16.5004
 02  7 16 15 37  0.0040000  0  9G21G 6G15G17G18G22G23G26G29
  25222079.0664    -161143.85745   -106929.64045                  25222085.1484
        11.0004         10.2504
  21979890.3714    7306759.65848   5693576.06647                  21979893.9104
        30.7504         29.0004
  22173295.7304    2173343.71948   1693275.40147                  22173300.4064
        30.5004         28.2504
  21976076.6684    3541093.22848   2759293.99047                  21976081.0164
        28.2504         27.5004
  22668045.8164    -463545.60647   -358767.43547                  22668049.3914
        27.2504         26.5004
  24359276.2464    3558800.08046   1732902.07846                  24359282.6804
        13.2504         13.0004
  22684769.4734    8158429.98648   6332558.46547                  22684773.8094
        31.2504         30.2504
  23495304.1134    2064699.15147    966769.15146                  23495309.1054
        20.0004         18.0004
  24109294.8714    3692714.75946   2008872.04546                  24109298.9494
        18.7504         17.0004
 02  7 16 15 37 15.0040000  0  9G21G 6G15G17G18G22G23G26G29
  25221428.8634    -164566.21845   -109596.38645                  25221435.7074
        11.5004         10.5004
  21991904.0594    7369892.29148   5742770.31547                  21991907.7034
        30.5004         28.7504
  22177673.1914    2196348.01448   1711200.83347                  22177677.8094
        30.5004         28.5004
  21982212.4104    3573336.99348   2784419.00447                  21982216.7584
        28.0004         27.5004
  22669334.3164    -456777.13048   -353493.27447                  22669337.7504
        28.0004         26.5004
  24366600.7774    3597284.95946   1762890.28646                  24366607.3164
        13.5004         13.0004
  22697752.7074    8226655.60448   6385721.27047                  22697757.0784
        31.2504         30.0004
  23500589.8714    2092477.91047    988414.94846                  23500594.7114
        20.0004         18.5004
  24116643.0514    3731328.95646   2038961.01946                  24116647.1764
        18.7504         16.7504
 02  7 16 15 37 30.0040000  0  9G21G 6G15G17G18G22G23G26G29
  25220793.9734    -167902.75445   -112196.26445                  25220801.0434
        11.7504         11.0004
  22003946.9414    7433177.74048   5792083.62647                  22003950.5164
        30.7504         29.0004
  22182069.5824    2219450.60748   1729202.85947                  22182074.1994
        30.5004         28.2504
  21988365.4494    3605672.56547   2809615.55447                  21988369.8794
        27.7504         27.5004
  22670648.4884    -449869.38847   -348110.59047                  22670652.0394
        27.7504         26.7504
  24373957.4024    3635948.28746   1793017.53346                  24373963.4024
        13.2504         13.0004
  22710759.7384    8295009.69348   6438984.18447                  22710764.0514
        31.2504         30.2504
  23505912.2854    2120444.63947   1010207.19246                  23505916.9844
        21.0004         18.5004
  24124023.4264    3770115.84446   2069184.54746                  24124027.6094
        18.0004         16.7504
 02  7 16 15 37 45.0040000  0  9G21G 6G15G17G18G22G23G26G29
  25220174.4264    -171153.79345   -114729.49645                  25220182.2114
        11.5004         11.0004
  22016018.5044    7496615.58448   5841515.69547                  22016022.2424
        30.5004         28.7504
  22186484.2234    2242651.15148   1747281.21347                  22186488.9344
        30.2504         28.2504
  21994535.9734    3638099.65347   2834883.41247                  21994540.3914
        27.7504         27.5004
  22671989.8164    -442822.66348   -342619.61447                  22671993.3554
        28.2504         27.0004
  24381348.9264    3674789.69546   1823283.56146                  24381354.7384
        13.5004         13.0004
  22723791.8164    8363491.56248   6492346.66747                  22723796.0594
        31.7504         30.0004
  23511269.8484    2148599.24347   1032145.85946                  23511274.1844
        20.5004         18.7504
  24131436.9414    3809075.16046   2099542.44646                  24131441.4534
        18.0004         16.5004
 02  7 16 15 38  0.0040000  0  9G21G 6G15G17G18G22G23G26G29
  25219571.6214    -174321.19645   -117197.58745                  25219578.4924
        11.5004         11.2504
  22028119.1444    7560203.66548   5891064.82847                  22028122.8364
        30.7504         28.7504
  22190917.3164    2265947.51848   1765434.23047                  22190922.2154
        30.0004         28.0004
  22000723.7624    3670616.08048   2860220.89147                  22000728.1094
        28.2504         27.5004
  22673356.5354    -435638.93548   -337021.87947                  22673360.0274
        28.2504         27.0004
  24388773.8244    3713806.88246   1853686.54746                  24388779.2504
        14.0004         13.0004
  22736847.2304    8432098.83648   6545806.86647                  22736851.6254
        30.7504         29.7504
  23516662.6914    2176939.83347   1054229.43146                  23516667.4024
        20.5004         18.5004
  24138883.2544    3848204.90946   2130033.15446                  24138887.9884
        17.7504         16.7504
 02  7 16 15 38 15.0040000  0  9G21G 6G15G17G18G22G23G26G29
  25218986.1604    -177401.58245   -119597.84845                  25218993.8634
        11.5004         11.5004
  22040248.9264    7623945.23048   5940733.56147                  22040252.5704
        30.5004         28.7504
  22195369.3244    2289343.01148   1783664.49047                  22195374.0824
        29.7504         28.0004
  22006929.2304    3703225.02048   2885630.45447                  22006933.5314
        28.2504         27.5004
  22674750.3554    -428314.73748   -331314.68547                  22674753.6844
        28.5004         27.2504
  24396233.4024    3753003.20946   1884229.14146                  24396238.5354
        14.7504         13.2504
  22749926.9494    8500834.52748   6599367.13247                  22749931.4374
        29.7504         29.2504
  23522091.1994    2205469.80347   1076460.58146                  23522096.5314
        20.0004         18.2504
  24146361.9574    3887508.48846   2160659.31446                  24146366.9264
        17.5004         16.5004
 02  7 16 15 38 30.0040000  0  9G21G 6G15G17G18G22G23G26G29
  25218416.1684    -180394.16445   -121929.69045                  25218424.0004
        11.7504         11.0004
  22052407.6994    7687840.84948   5990522.33547                  22052411.5084
        30.2504         28.7504
  22199840.8634    2312838.28548   1801972.49747                  22199845.4224
        30.5004         28.2504
  22013152.2694    3735927.31348   2911112.76247                  22013156.5944
        28.2504         27.7504
  22676170.9414    -420849.22648   -325497.38247                  22676174.2344
        28.5004         27.0004
  24403726.3794    3792379.20746   1914911.72346                  24403731.3244
        14.7504         13.7504
  22763031.2624    8569699.06448   6653027.79247                  22763035.9374
        29.2504         29.0004
  23527556.6214    2234190.07647   1098840.01846                  23527561.3794
        20.5004         18.5004
  24153874.5124    3926986.60946   2191421.46746                  24153879.4454
        17.7504         16.5004
 02  7 16 15 38 45.0040000  0  9G21G 6G15G17G18G22G23G26G29
  25217862.8944    -183301.25345   -124194.92645                  25217870.7974
        11.7504         11.2504
  22064595.4804    7751888.04548   6040429.21747                  22064599.2664
        30.2504         28.7504
  22204330.2384    2336430.88948   1820356.35647                  22204334.7274
        30.2504         28.2504
  22019392.6134    3768720.38348   2936665.80347                  22019397.0084
        28.0004         27.5004
  22677617.9264    -413244.84448   -319571.86547                  22677621.3244
        28.5004         27.5004
  24411253.2384    3831932.47846   1945732.43446                  24411258.5004
        14.7504         13.5004
  22776159.6604    8638689.70248   6706786.71347                  22776164.5124
        28.7504         28.7504
  23533058.0744    2263098.31647   1121365.91546                  23533062.7384
        21.0004         18.5004
  24161420.4344    3966636.84446   2222317.73446                  24161425.1334
        18.2504         16.5004
 02  7 16 15 39  0.0040000  0  9G21G 6G15G17G18G22G23G26G29
  25217325.4734    -186124.01545   -126394.44845                  25217332.7424
        11.5004         11.2504
  22076811.9494    7816085.38948   6090453.10047                  22076815.8754
        30.0004         28.7504
  22208837.7694    2360119.52948   1838815.03947                  22208842.4454
        30.2504         28.2504
  22025649.8874    3801602.95348   2962288.58847                  22025654.1644
        28.0004         27.5004
  22679091.3484    -405502.71548   -313539.01847                  22679094.8524
        28.7504         27.5004
  24418813.0824    3871661.52346   1976690.13146                  24418818.7774
        14.7504         13.5004
  22789311.8944    8707804.81048   6760642.62547                  22789316.7234
        28.5004         28.5004
  23538594.4884    2292193.41547   1144037.42346                  23538599.0234
        20.5004         18.5004
  24168997.7694    4006457.87646   2253347.09946                  24169002.3754
        18.0004         16.5004
 02  7 16 15 39 15.0040000  0  9G21G 6G15G17G18G22G23G26G29
  25216804.6914    -188860.57445   -128526.80045                  25216811.9844
        11.2504         11.2504
  22089056.9964    7880434.40048   6140595.16747                  22089061.0744
        30.0004         28.7504
  22213364.0514    2383905.78548   1857349.78947                  22213368.8444
        29.5004         28.0004
  22031924.4574    3834576.62348   2987982.35847                  22031928.8404
        28.0004         27.5004
  22680591.3794    -397621.22748   -307397.57447                  22680594.6484
        29.0004         27.5004
  24426406.2304    3911567.87546   2007785.97946                  24426412.3834
        14.2504         13.2504
  22802488.0824    8777045.67148   6814596.52447                  22802492.8054
        28.7504         28.5004
  23544166.8014    2321477.19547   1166855.95146                  23544172.0864
        20.0004         18.2504
  24176608.1374    4046451.46146   2284510.92346                  24176612.8364
        17.7504         16.2504
 02  7 16 15 39 30.0040000  0  9G21G 6G15G17G18G22G23G26G29
  25216300.9344    -191508.05945   -130589.74945                  25216308.0394
        10.7504         11.2504
  22101331.5044    7944937.74448   6190857.49247                  22101335.6644
        29.7504         28.5004
  22217909.3794    2407792.28248   1875962.65147                  22217914.1604
        29.2504         27.7504
  22038217.0594    3867643.90148   3013749.06747                  22038221.3714
        28.0004         27.7504
  22682117.9104    -389597.49948   -301145.29447                  22682121.1684
        29.0004         27.2504
  24434034.7544    3951654.15446   2039022.04146                  24434040.9184
        14.5004         13.5004
  22815688.6134    8846414.71348   6868650.31147                  22815693.2304
        29.0004         28.5004
  23549776.2304    2350952.43847   1189823.67846                  23549780.9654
        20.5004         18.2504
  24184251.8944    4086620.07946   2315811.12146                  24184256.5594
        17.5004         16.2504
 02  7 16 15 39 45.0040000  0  9G21G 6G15G17G18G22G23G26G29
  25215813.8554    -194067.70545   -132584.26245                  25215821.0314
        11.2504         11.0004
  22113635.3714    8009593.95948   6241238.93547                  22113639.3554
        30.0004         28.7504
  22222473.9734    2431777.60848   1894652.51947                  22222478.6844
        30.0004         28.0004
  22044527.1844    3900803.54648   3039587.74547                  22044531.4494
        28.0004         27.7504
  22683671.5594    -381432.76648   -294783.14747                  22683674.6414
        29.0004         27.5004
  24441696.4184    3991918.93546   2070397.19246                  24441702.5594
        14.2504         13.7504
  22828913.3944    8915910.29848   6922802.69947                  22828917.8594
        29.2504         28.5004
  23555421.3634    2380618.10747   1212939.78146                  23555426.2854
        20.5004         18.5004
  24191928.5664    4126962.67946   2347246.89746                  24191933.0084
        17.2504         16.0004
 02  7 16 15 40  0.0040000  0  9G21G 6G15G17G18G22G23G26G29
  25215342.6054    -196543.22245   -134513.20645                  25215349.6874
        11.2504         11.2504
  22125967.3404    8074399.23248   6291736.52947                  22125971.4304
        29.7504         28.7504
  22227056.3944    2455858.11048   1913416.54947                  22227060.8944
        30.2504         28.0004
  22050853.9734    3934051.83147   3065495.50447                  22050858.3324
        27.7504         27.5004
  22685251.3874    -373130.56148   -288313.88147                  22685254.7384
        29.0004         27.2504
  24449392.9344    4032358.45346   2101908.51146                  24449399.2854
        15.2504         13.7504
  22842161.3484    8985528.35648   6977050.52647                  22842165.6024
        29.5004         28.5004
  23561102.1374    2410470.53247   1236201.41246                  23561106.9654
        20.7504         18.5004
  24199638.3874    4167475.57946   2378815.37446                  24199642.4654
        17.7504         16.5004
 02  7 16 15 40 15.0040000  0  9G21G 6G15G17G18G22G23G26G29
  25214888.1524    -198930.30545   -136373.23745                  25214895.6914
        11.0004         11.0004
  22138328.7384    8139357.61248   6342353.42647                  22138332.7694
        30.2504         29.0004
  22231657.5274    2480037.89048   1932257.94347                  22231662.0864
        30.0004         28.0004
  22057198.5434    3967392.67348   3091475.37947                  22057202.9494
        28.0004         27.5004
  22686858.0744    -364686.76048   -281734.27447                  22686861.2974
        28.7504         27.5004
  24457122.2544    4072976.68946   2133559.06646                  24457128.3124
        15.0004         13.7504
  22855433.2774    9055272.72548   7031396.77247                  22855437.7194
        29.0004         28.2504
  23566818.4024    2440514.02047   1259611.92746                  23566823.2424
        20.0004         18.2504
  24207381.0824    4208162.90146   2410519.77146                  24207385.4064
        18.0004         16.2504
 02  7 16 15 40 30.0040000  0  9G21G 6G15G17G18G22G23G26G29
  25214450.6294    -201230.75245   -138165.74545                  25214457.7344
        11.2504         11.5004
  22150718.5514    8204467.29648   6393088.22347                  22150722.5234
        30.0004         28.7504
  22236277.2154    2504315.21948   1951175.34647                  22236281.7854
        29.7504         28.0004
  22063560.5664    4000824.42048   3117526.09647                  22063564.8914
        28.2504         27.5004
  22688491.9024    -356102.93448   -275045.55747                  22688495.1134
        29.0004         27.2504
  24464885.5044    4113771.84146   2165347.47546                  24464890.5084
        15.7504         14.2504
  22868728.7464    9125141.41748   7085839.89347                  22868733.1174
        28.7504         28.2504
  23572572.4804    2470746.98147   1283170.06846                  23572577.0624
        20.7504         18.5004
  24215156.4184    4249022.83546   2442358.65746                  24215160.2274
        18.2504         16.7504
 02  7 16 15 40 45.0040000  0  9G21G 6G15G17G18G22G23G26G29
  25214029.5194    -203443.79545   -139890.20745                  25214036.3914
        11.0004         10.7504
  22163137.6134    8269728.63748   6443941.19547                  22163141.6444
        30.5004         29.0004
  22240915.6374    2528690.45148   1970169.04247                  22240920.3834
        29.5004         28.0004
  22069939.6214    4034347.45348   3143647.94147                  22069943.8404
        28.2504         27.5004
  22690151.7774    -347378.45148   -268247.24047                  22690154.7894
        29.0004         27.0004
  24472682.4184    4154744.23346   2197274.01746                  24472687.7154
        16.0004         14.0004
  22882047.9024    9195134.52648   7140379.96647                  22882052.5084
        28.2504         27.7504
  23578361.6214    2501170.06047   1306876.36946                  23578366.0514
        20.7504         18.5004
  24222964.7774    4290055.95646   2474332.49946                  24222969.3944
        17.7504         16.2504
 02  7 16 15 41  0.0040000  0  9G21G 6G15G17G18G22G23G26G29
  25213624.6374    -205571.70045   -141548.24745                  25213631.3524
        11.2504         11.5004
  22175584.6604    8335139.05348   6494910.32047                  22175588.6914
        30.2504         29.0004
  22245572.0514    2553161.06848   1989237.05747                  22245576.9844
        29.0004         27.7504
  22076335.7234    4067959.26048   3169838.95847                  22076339.8594
        28.2504         27.7504
  22691838.3554    -338515.75148   -261341.22147                  22691841.5194
        29.0004         27.2504
  24480512.4654    4195891.28146   2229336.62146                  24480517.5514
        15.5004         14.2504
  22895390.2384    9265249.27648   7195014.81547                  22895395.0904
        28.0004         27.7504
  23584185.9104    2531780.89547   1330728.96746                  23584190.7734
        20.0004         18.2504
  24230805.8554    4331259.78446   2506439.36446                  24230810.2274
        18.0004         16.2504
 02  7 16 15 41 15.0040000  0  9G21G 6G15G17G18G22G23G26G29
  25213235.5594    -207613.03445   -143138.86945                  25213243.2034
        11.5004         11.2504
  22188060.4264    8400700.04348   6545996.78547                  22188064.4804
        30.0004         28.7504
  22250247.1444    2577728.64348   2008380.62847                  22250252.2424
        29.0004         27.7504
  22082749.0904    4101661.46248   3196100.41547                  22082753.3444
        28.2504         27.5004
  22693551.5824    -329513.14348   -254326.18247                  22693554.7814
        28.7504         27.2504
  24488375.3404    4237214.49846   2261536.52346                  24488381.2814
        15.0004         14.0004
  22908755.9884    9335486.94248   7249745.44447                  22908761.0984
        28.2504         27.7504
  23590047.9414    2562581.25047   1354729.24146                  23590052.5234
        21.2504         18.5004
  24238678.7304    4372635.94246   2538680.51546                  24238683.2544
        17.5004         16.5004
 02  7 16 15 41 30.0040000  0  9G21G 6G15G17G18G22G23G26G29
  25212863.4024    -209569.57045   -144663.43345                  25212871.2814
        11.0004         11.0004
  22200564.6294    8466409.57148   6597198.99147                  22200568.6024
        30.5004         29.2504
  22254940.4654    2602391.35248   2027598.33047                  22254945.2694
        29.0004         27.7504
  22089179.2934    4135452.13748   3222430.81547                  22089183.6054
        28.2504         27.5004
  22695290.8484    -320372.37048   -247203.48547                  22695293.9884
        28.5004         27.5004
  24496271.7934    4278711.87646   2293872.14246                  24496277.5124
        14.7504         14.0004
  22922144.7154    9405845.32648   7304570.14547                  22922149.4264
        28.5004         28.0004
  23595944.7624    2593569.31347   1378875.78946                  23595949.0744
        21.5004         18.5004
  24246584.6054    4414182.57846   2571054.49746                  24246589.2584
        17.5004         16.5004
 02  7 16 15 41 45.0040000  0  9G21G 6G15G17G18G22G23G26G29
  25212509.3874    -211434.57546   -146116.66745                  25212516.6914
        12.2504         11.0004
  22213098.3634    8532273.93748   6648521.85247                  22213102.3594
        30.2504         29.0004
  22259652.8244    2627155.50948   2046895.08147                  22259657.5124
        29.0004         27.5004
  22095627.5744    4169337.64248   3248835.10447                  22095631.8634
        28.7504         27.7504
  22697057.6684    -311087.02348   -239968.12647                  22697060.9494
        28.5004         27.0004
  24504202.4884    4320389.78946   2326348.43846                  24504208.8284
        14.5004         14.5004
  22935558.1994    9476330.53848   7359493.66847                  22935562.8284
        30.0004         28.2504
  23601878.1684    2624751.68447   1403173.73746                  23601882.9024
        20.5004         18.5004
  24254525.1604    4455906.11846   2603566.33046                  24254529.9064
        18.0004         16.5004
 02  7 16 15 42  0.0040000  0  9G21G 6G15G17G18G22G23G26G29
  25212171.5904    -213209.52746   -147499.70545                  25212178.3984
        12.5004         10.7504
  22225661.1054    8598291.45948   6699964.05547                  22225665.1374
        30.2504         29.2504
  22264384.1294    2652019.58848   2066269.69047                  22264388.7814
        28.5004         27.2504
  22102093.4264    4203316.19248   3275311.89847                  22102097.7384
        28.5004         27.7504
  22698852.0664    -301658.40648   -232621.13547                  22698855.3364
        28.7504         27.2504
  24512167.6374    4362246.49046   2358964.05746                  24512173.8714
        14.2504         13.5004
  22948994.8404    9546940.72648   7414514.58547                  22948999.2584
        30.2504         28.7504
  23607848.5044    2656126.94047   1427621.99246                  23607853.2154
        20.5004         18.5004
  24262498.2154    4497804.90046   2636214.70546                  24262502.5274
        18.0004         16.5004
 02  7 16 15 42 15.0040000  0  9G21G 6G15G17G18G22G23G26G29
  25211849.0984    -214900.81645   -148817.57745                  25211855.5784
        11.7504         10.7504
  22238251.6444    8664455.62448   6751520.52347                  22238255.6524
        30.5004         29.2504
  22269133.2694    2676977.17748   2085717.17147                  22269138.0514
        28.0004         27.2504
  22108575.7934    4237381.66848   3301856.42847                  22108580.0824
        28.2504         28.0004
  22700672.1054    -292092.92448   -225167.49647                  22700675.3284
        28.5004         27.2504
  24520165.4964    4404275.55146   2391713.95946                  24520172.2464
        14.2504         14.5004
  22962453.8484    9617669.22048   7469627.68447                  22962458.0784
        30.5004         28.7504
  23613854.9024    2687688.83847   1452215.69046                  23613859.4144
        21.2504         18.5004
  24270503.9494    4539872.72446   2668994.80746                  24270508.0274
        18.7504         17.0004
 02  7 16 15 42 30.0050000  0  9G21G 6G15G17G18G22G23G26G29
  25211544.4704    -216503.96946   -150066.76245                  25211550.1424
        12.5004         11.2504
  22250872.0174    8730775.36548   6803198.22447                  22250876.0244
        30.7504         29.0004
  22273901.7904    2702034.45948   2105242.32747                  22273906.7004
        28.2504         27.2504
  22115076.3534    4271540.64548   3328473.81347                  22115080.6654
        28.7504         27.5004
  22702519.4464    -282385.29148   -217603.08847                  22702522.5404
        28.5004         27.2504
  24528198.0954    4446484.16446   2424603.77046                  24528204.8104
        14.7504         14.0004
  22975937.5404    9688524.90548   7524839.89447                  22975941.6304
        31.5004         29.0004
  23619897.4934    2719444.23447   1476960.14946                  23619902.0524
        21.0004         18.5004
  24278542.3684    4582116.94346   2701912.36246                  24278546.2704
        18.2504         17.0004
 02  7 16 15 42 45.0050000  0 10G21G 2G 6G15G17G18G22G23G26G29
  25211255.3454    -218018.89346   -151247.19245                  25211261.9314
        12.0004         11.2504
  26286021.7514      10024.80255
         8.7504
  22263520.0094    8797241.33448   6854989.85747                  22263523.9234
        30.7504         29.2504
  22278688.3134    2727187.56748   2124842.16247                  22278693.3174
        28.5004         27.2504
  22121593.1104    4305788.22448   3355160.24247                  22121597.2944
        28.5004         28.0004
  22704393.4934    -272537.11048   -209929.16647                  22704396.9744
        28.7504         27.0004
  24536263.1184    4488866.18946   2457628.75846                  24536269.2354
        15.0004         14.2504
  22989443.1494    9759497.56948   7580143.25947                  22989447.3924
        31.2504         28.7504
  23625976.5954    2751388.56447   1501851.83146                  23625980.9314
        21.0004         18.7504
  24286613.1184    4624531.36746   2734962.53946                  24286617.5244
        17.7504         16.7504
 02  7 16 15 43  0.0050000  0 10G21G 2G 6G15G17G18G22G23G26G29
  25210984.8454    -219446.22846   -152359.36445                  25210991.3024
        12.7504         11.2504
  26289618.9464      28932.14545
         9.0004
  22276196.6814    8863857.17948   6906898.28947                  22276200.5134
        30.7504         29.0004
  22283492.8064    2752437.56848   2144517.49147                  22283497.8924
        28.0004         27.0004
  22128127.6964    4340125.90448   3381916.87747                  22128131.8334
        29.2504         27.5004
  22706294.2984    -262548.40148   -202145.73147                  22706297.4624
        28.2504         26.7504
  24544361.6344    4531423.65146   2490790.38546                  24544367.8804
        15.0004         12.7504
  23002971.6424    9830591.05648   7635540.76947                  23002975.7674
        31.2504         28.5004
  23632091.7044    2783523.41447   1526891.97846                  23632095.8764
        21.5004         18.7504
  24294717.2204    4667118.26646   2768147.12746                  24294722.2474
        17.5004         16.0004
 02  7 16 15 43 15.0050000  0 10G21G 2G 6G15G17G18G22G23G26G29
  25210730.2434    -220783.33746   -153401.27245                  25210737.6424
        13.0004         11.5004
  26293244.8844      47982.25245
         9.0004
  22288902.3604    8930625.39348   6958925.44147                  22288906.2044
        31.0004         28.7504
  22288316.6344    2777787.02147   2164270.30647                  22288321.7084
        27.7504         26.5004
  22134679.3764    4374556.29848   3408745.75547                  22134683.4784
        28.7504         27.2504
  22708222.4624    -252416.32048   -194250.58947                  22708225.6034
        28.5004         26.7504
  24552494.2044    4574159.07746   2524090.70646                  24552499.3604
        15.0004         13.0004
  23016523.7674    9901807.68648   7691034.23047                  23016528.0914
        31.5004         28.2504
  23638243.5634    2815851.50447   1552082.70346                  23638248.0874
        21.5004         18.5004
  24302854.5714    4709880.34346   2801468.20546                  24302859.4464
        17.5004         15.7504
 02  7 16 15 43 30.0050000  0 10G21G 2G 6G15G17G18G22G23G26G29
  25210491.3924    -222035.44546   -154376.91346                  25210498.7204
        12.7504         12.5004
  26296897.0174      67169.70745
         9.5004
  22301635.9624    8997540.37648   7011066.95947                  22301639.8174
        31.2504         29.0004
  22293158.5954    2803230.41948   2184096.33947                  22293163.4234
        28.0004         27.0004
  22141247.8924    4409073.89848   3435642.59047                  22141252.0524
        28.7504         27.5004
  22710176.7674    -242146.37548   -186248.01247                  22710179.9664
        28.7504         27.0004
  24560658.9934    4617066.79046   2557525.26846                  24560666.0754
        15.0004         13.5004
  23030097.9704    9973141.61248   7746619.09747                  23030102.1884
        31.5004         28.5004
  23644430.9154    2848367.46247   1577419.80646                  23644435.2864
        21.2504         18.7504
  24311024.2354    4752811.96646   2834921.41046                  24311028.8414
        17.5004         16.2504
 02  7 16 15 43 45.0050000  0 10G21G 2G 6G15G17G18G22G23G26G29
  25210271.0094    -223196.76846   -155281.78446                  25210277.3374
        12.7504         12.2504
  26300575.9704      86500.49145      9049.89255                  26300582.7204
         9.5004          8.7504
  22314398.5244    9064607.87648   7063327.32147                  22314402.3924
        31.2504         29.5004
  22298019.6264    2828773.55548   2204000.09147                  22298024.2554
        28.5004         27.2504
  22147833.9384    4443684.43948   3462611.84847                  22147838.1574
        28.7504         27.7504
  22712158.1264    -231732.65948   -178133.41447                  22712161.3724
        28.5004         27.2504
  24568857.6034    4660152.60646   2591098.63246                  24568863.5324
        14.2504         12.0004
  23043695.9854   10044598.38348   7802299.68547                  23043700.2284
        31.7504         29.0004
  23650655.7124    2881077.36347   1602908.05046                  23650659.9424
        21.5004         19.0004
  24319227.7824    4795918.97746   2868511.26646                  24319232.0484
        18.2504         16.0004
 02  7 16 15 44  0.0050000  0 10G21G 2G 6G15G17G18G22G23G26G29
  25210066.3764    -224271.07646   -156118.89145                  25210072.6814
        13.2504         11.5004
  26304279.6574     105970.71545     24221.47845                  26304286.7044
         8.5004          8.7504
  22327189.0324    9131823.79948   7115703.33947                  22327192.7944
        30.7504         29.5004
  22302898.6884    2854412.49748   2223978.49747                  22302903.4354
        29.0004         27.5004
  22154436.7824    4478383.89748   3489650.38347                  22154440.9314
        28.2504         27.7504
  22714166.6814    -221178.87248   -169909.66447                  22714169.8104
        28.7504         27.5004
  24577089.1884    4703412.40546   2624807.54646                  24577094.4504
        13.5004         12.7504
  23057316.4784   10116173.67648   7858072.63347                  23057320.6734
        32.2504         29.2504
  23656916.7434    2913977.19347   1628544.27946                  23656921.2674
        22.0004         19.0004
  24327463.4314    4839197.58546   2902234.83546                  24327467.6494
        18.5004         16.5004
 02  7 16 15 44 15.0050000  0 10G21G 2G 6G15G17G18G22G23G26G29
  25209878.1964    -225260.90646   -156890.16945                  25209884.2904
        13.0004         11.7504
  26308010.2594     125577.92645     39499.81845                  26308018.0444
         8.0004          9.0004
  22340007.8294    9199185.48448   7168192.94047                  22340011.5914
        31.2504         29.7504
  22307794.8374    2880144.64848   2244029.52647                  22307799.5364
        28.0004         27.7504
  22161056.5874    4513169.79848   3516756.28247                  22161060.7824
        28.2504         27.2504
  22716200.9854    -210487.54848   -161578.73947                  22716204.1734
        28.7504         27.7504
  24585354.1424    4746843.45346   2658649.91946                  24585360.8804
        13.7504         13.0004
  23070958.8994   10187864.62448   7913935.69947                  23070963.0244
        33.0004         29.5004
  23663212.9464    2947064.58347   1654326.66646                  23663217.2474
        22.0004         19.0004
  24335731.0324    4882645.00346   2936089.94546                  24335734.7594
        18.2504         16.7504
 02  7 16 15 44 30.0050000  0 10G21G 2G 6G15G17G18G22G23G26G29
  25209707.1884    -226161.79546   -157592.12346                  25209713.9624
        13.5004         12.5004
  26311769.1574     145326.61245     54888.38745                  26311776.8374
         8.5004          8.5004
  22352854.8994    9266697.20048   7220799.44947                  22352858.8134
        31.2504         29.5004
  22312710.1034    2905974.29348   2264156.53147                  22312715.1064
        28.0004         27.5004
  22167693.4704    4548046.38648   3543932.84447                  22167697.7244
        28.2504         27.5004
  22718262.4704    -199654.23648   -153137.17947                  22718265.6574
        28.7504         27.7504
  24593651.7594    4790450.06046   2692629.10346                  24593658.5094
        13.7504         12.0004
  23084623.9234   10259675.29448   7969892.05547                  23084627.9194
        32.5004         29.7504
  23669545.4544    2980344.07847   1680258.73846                  23669550.1184
        21.2504         19.0004
  24344031.6264    4926265.70046   2970080.07646                  24344035.4934
        18.0004         16.0004
 02  7 16 15 44 45.0050000  0 10G21G 2G 6G15G17G18G22G23G26G29
  25209551.5094    -226974.68146   -158225.51646                  25209558.1534
        13.0004         12.7504
  26315552.1184     165215.81745     70386.48045                  26315557.9074
         7.7504          8.0004
  22365730.0244    9334357.83348   7273521.98847                  22365733.7394
        30.7504         29.5004
  22317643.4234    2931900.40347   2284358.70347                  22317648.6034
        27.5004         27.2504
  22174347.0634    4583012.55748   3571179.20647                  22174351.4584
        28.0004         27.2504
  22720350.8684    -188679.95848   -144585.77147                  22720354.1144
        28.7504         27.7504
  24601983.8534    4834231.00446   2726744.13146                  24601990.9234
        14.5004         14.0004
  23098311.4314   10331604.30848   8025940.63047                  23098315.6264
        32.5004         29.5004
  23675914.2904    3013814.73247   1706339.77946                  23675918.8024
        21.2504         19.0004
  24352364.9464    4970058.66546   3004204.43646                  24352369.3884
        17.2504         16.7504
 02  7 16 15 45  0.0050000  0 10G21G 2G 6G15G17G18G22G23G26G29
  25209414.3374    -227695.63146   -158787.27146                  25209421.0754
        13.2504         12.5004
  26319365.0794     185249.22945     85996.92745                  26319372.9584
         8.0004          8.0004
  22378634.6654    9402170.84548   7326363.27147                  22378638.4034
        31.2504         29.5004
  22322596.5564    2957926.57948   2304638.84347                  22322601.6884
        28.5004         27.5004
  22181018.5014    4618071.92147   3598498.19347                  22181022.8254
        27.7504         27.5004
  22722466.6654    -177561.05648   -135921.67747                  22722469.8994
        28.7504         28.0004
  24610348.8844    4878189.74846   2760997.64946                  24610355.8604
        14.7504         12.5004
  23112022.5564   10403654.97448   8082083.99347                  23112026.4814
        33.0004         29.5004
  23682321.1494    3047480.20047   1732572.61646                  23682325.6964
        22.0004         19.0004
  24360731.9154    5014027.51646   3038465.88246                  24360736.6034
        17.0004         16.0004
